Time,TemperatureF,DewpointF,PressureIn,WindDirection,WindDirectionDegrees,WindSpeedMPH,WindSpeedGustMPH,Humidity,HourlyPrecipIn,Conditions,Clouds,dailyrainin,SoftwareType,DateUTC
2013-07-21 00:00:00,74.7,25.5,29.99,WNW,287,0.0,0.0,16,0.00,CLR,,0.00,WeatherDisplay:10.37,2013-07-21 04:00:00,
2013-07-21 00:01:00,74.8,25.6,29.99,WNW,287,0.0,0.0,16,0.00,CLR,,0.00,WeatherDisplay:10.37,2013-07-21 04:01:00,
2013-07-21 00:06:00,74.9,25.6,29.99,WNW,287,0.0,0.0,16,0.00,CLR,,0.00,WeatherDisplay:10.37,2013-07-21 04:06:00,
2013-07-21 00:11:00,74.7,27.0,29.99,WNW,287,0.0,0.0,17,0.00,CLR,,0.00,WeatherDisplay:10.37,2013-07-21 04:11:00,
2013-07-21 00:12:00,74.7,27.0,29.99,WNW,287,0.0,0.0,17,0.00,CLR,,0.00,WeatherDisplay:10.37,2013-07-21 04:12:00,
2013-07-21 00:16:00,74.3,28.0,29.99,WNW,287,0.0,0.0,18,0.00,CLR,,0.00,WeatherDisplay:10.37,2013-07-21 04:16:00,
2013-07-21 00:17:00,74.3,29.3,29.99,WNW,287,0.0,0.0,19,0.00,CLR,,0.00,WeatherDisplay:10.37,2013-07-21 04:17:00,
2013-07-21 00:21:00,74.2,35.1,29.99,WNW,287,0.0,0.0,24,0.00,CLR,,0.00,WeatherDisplay:10.37,2013-07-21 04:21:00,
2013-07-21 00:22:00,74.3,35.2,29.99,WNW,287,0.0,0.0,24,0.00,CLR,,0.00,WeatherDisplay:10.37,2013-07-21 04:22:00,
2013-07-21 00:26:00,74.2,39.0,29.99,WNW,287,0.0,0.0,28,0.00,CLR,,0.00,WeatherDisplay:10.37,2013-07-21 04:26:00,
2013-07-21 00:27:00,74.2,38.1,29.99,WNW,287,0.0,0.0,27,0.00,CLR,,0.00,WeatherDisplay:10.37,2013-07-21 04:27:00,
2013-07-21 00:31:00,74.2,39.0,30.00,WNW,287,0.0,0.0,28,0.00,CLR,,0.00,WeatherDisplay:10.37,2013-07-21 04:31:00,
2013-07-21 00:32:00,74.2,39.0,30.00,WNW,287,0.0,0.0,28,0.00,CLR,,0.00,WeatherDisplay:10.37,2013-07-21 04:32:00,
2013-07-21 00:36:00,74.0,37.9,30.00,WNW,287,0.0,0.0,27,0.00,CLR,,0.00,WeatherDisplay:10.37,2013-07-21 04:36:00,
2013-07-21 00:37:00,74.2,38.1,30.00,WNW,287,0.0,0.0,27,0.00,CLR,,0.00,WeatherDisplay:10.37,2013-07-21 04:37:00,
2013-07-21 00:38:00,74.0,37.9,30.00,WNW,287,0.0,0.0,27,0.00,CLR,,0.00,WeatherDisplay:10.37,2013-07-21 04:38:00,
2013-07-21 00:41:00,74.2,35.1,30.00,WNW,287,0.0,0.0,24,0.00,CLR,,0.00,WeatherDisplay:10.37,2013-07-21 04:41:00,
2013-07-21 00:42:00,74.1,33.9,30.00,WNW,287,0.0,0.0,23,0.00,CLR,,0.00,WeatherDisplay:10.37,2013-07-21 04:42:00,
2013-07-21 00:43:00,74.1,33.9,30.00,WNW,287,0.0,0.0,23,0.00,CLR,,0.00,WeatherDisplay:10.37,2013-07-21 04:43:00,
2013-07-21 00:46:00,74.1,32.8,30.00,WNW,287,0.0,0.0,22,0.00,CLR,,0.00,WeatherDisplay:10.37,2013-07-21 04:46:00,
2013-07-21 00:47:00,74.2,34.0,30.00,WNW,287,0.0,0.0,23,0.00,CLR,,0.00,WeatherDisplay:10.37,2013-07-21 04:47:00,
2013-07-21 00:48:00,74.2,31.7,30.00,WNW,287,0.0,0.0,21,0.00,CLR,,0.00,WeatherDisplay:10.37,2013-07-21 04:48:00,
2013-07-21 00:52:00,74.2,29.3,30.00,WNW,287,0.0,0.0,19,0.00,CLR,,0.00,WeatherDisplay:10.37,2013-07-21 04:52:00,
2013-07-21 00:53:00,74.3,28.0,30.00,WNW,287,0.0,0.0,18,0.00,CLR,,0.00,WeatherDisplay:10.37,2013-07-21 04:53:00,
2013-07-21 00:57:00,74.3,25.2,30.00,WNW,287,0.0,0.0,16,0.00,CLR,,0.00,WeatherDisplay:10.37,2013-07-21 04:57:00,
2013-07-21 00:58:00,74.3,26.6,30.00,WNW,287,0.0,0.0,17,0.00,CLR,,0.00,WeatherDisplay:10.37,2013-07-21 04:58:00,
2013-07-21 00:59:00,74.2,26.5,30.00,WNW,287,0.0,0.0,17,0.00,CLR,,0.00,WeatherDisplay:10.37,2013-07-21 04:59:00,
2013-07-21 01:02:00,74.3,26.6,30.00,WNW,287,0.0,0.0,17,0.00,CLR,,0.00,WeatherDisplay:10.37,2013-07-21 05:02:00,
2013-07-21 01:03:00,74.3,25.2,30.00,WNW,287,0.0,0.0,16,0.00,CLR,,0.00,WeatherDisplay:10.37,2013-07-21 05:03:00,
2013-07-21 01:04:00,74.3,23.6,29.99,WNW,287,0.0,0.0,15,0.00,CLR,,0.00,WeatherDisplay:10.37,2013-07-21 05:04:00,
2013-07-21 01:07:00,74.3,25.2,30.00,WNW,287,0.0,0.0,16,0.00,CLR,,0.00,WeatherDisplay:10.37,2013-07-21 05:07:00,
2013-07-21 01:08:00,74.3,25.2,30.00,WNW,287,0.0,0.0,16,0.00,CLR,,0.00,WeatherDisplay:10.37,2013-07-21 05:08:00,
2013-07-21 01:09:00,74.3,23.6,30.00,WNW,287,0.0,0.0,15,0.00,CLR,,0.00,WeatherDisplay:10.37,2013-07-21 05:09:00,
2013-07-21 01:12:00,74.3,25.2,30.00,WNW,287,0.0,0.0,16,0.00,CLR,,0.00,WeatherDisplay:10.37,2013-07-21 05:12:00,
2013-07-21 01:13:00,74.3,25.2,30.00,WNW,287,0.0,0.0,16,0.00,CLR,,0.00,WeatherDisplay:10.37,2013-07-21 05:13:00,
2013-07-21 01:14:00,74.3,25.2,30.00,WNW,287,0.0,0.0,16,0.00,CLR,,0.00,WeatherDisplay:10.37,2013-07-21 05:14:00,
2013-07-21 01:17:00,74.3,26.6,30.00,WNW,287,0.0,0.0,17,0.00,CLR,,0.00,WeatherDisplay:10.37,2013-07-21 05:17:00,
2013-07-21 01:18:00,74.3,26.6,29.99,WNW,287,0.0,0.0,17,0.00,CLR,,0.00,WeatherDisplay:10.37,2013-07-21 05:18:00,
2013-07-21 01:19:00,74.3,26.6,29.99,WNW,287,0.0,0.0,17,0.00,CLR,,0.00,WeatherDisplay:10.37,2013-07-21 05:19:00,
2013-07-21 01:22:00,74.2,29.3,29.99,WNW,287,0.0,0.0,19,0.00,CLR,,0.00,WeatherDisplay:10.37,2013-07-21 05:22:00,
2013-07-21 01:23:00,74.3,29.3,29.99,WNW,287,0.0,0.0,19,0.00,CLR,,0.00,WeatherDisplay:10.37,2013-07-21 05:23:00,
2013-07-21 01:24:00,74.3,29.3,29.99,WNW,287,0.0,0.0,19,0.00,CLR,,0.00,WeatherDisplay:10.37,2013-07-21 05:24:00,
2013-07-21 01:27:00,74.2,29.3,29.99,WNW,287,0.0,0.0,19,0.00,CLR,,0.00,WeatherDisplay:10.37,2013-07-21 05:27:00,
2013-07-21 01:28:00,74.2,30.5,30.00,WNW,287,0.0,0.0,20,0.00,CLR,,0.00,WeatherDisplay:10.37,2013-07-21 05:28:00,
2013-07-21 01:29:00,74.2,29.3,30.00,WNW,287,0.0,0.0,19,0.00,CLR,,0.00,WeatherDisplay:10.37,2013-07-21 05:29:00,
2013-07-21 01:30:00,74.2,30.5,30.00,WNW,287,0.0,0.0,20,0.00,CLR,,0.00,WeatherDisplay:10.37,2013-07-21 05:30:00,
2013-07-21 01:33:00,74.3,29.3,30.00,WNW,287,0.0,0.0,19,0.00,CLR,,0.00,WeatherDisplay:10.37,2013-07-21 05:33:00,
2013-07-21 01:34:00,74.2,30.5,30.00,WNW,287,0.0,0.0,20,0.00,CLR,,0.00,WeatherDisplay:10.37,2013-07-21 05:34:00,
2013-07-21 01:35:00,74.2,30.5,30.00,WNW,287,0.0,0.0,20,0.00,CLR,,0.00,WeatherDisplay:10.37,2013-07-21 05:35:00,
2013-07-21 01:38:00,74.2,31.7,30.00,WNW,287,0.0,0.0,21,0.00,CLR,,0.00,WeatherDisplay:10.37,2013-07-21 05:38:00,
2013-07-21 01:39:00,74.2,31.7,30.00,WNW,287,0.0,0.0,21,0.00,CLR,,0.00,WeatherDisplay:10.37,2013-07-21 05:39:00,
2013-07-21 01:40:00,74.2,32.9,30.00,WNW,287,0.0,0.0,22,0.00,CLR,,0.00,WeatherDisplay:10.37,2013-07-21 05:40:00,
2013-07-21 01:43:00,74.2,32.9,30.00,WNW,287,0.0,0.0,22,0.00,CLR,,0.00,WeatherDisplay:10.37,2013-07-21 05:43:00,
2013-07-21 01:44:00,74.2,32.9,30.00,WNW,287,0.0,0.0,22,0.00,CLR,,0.00,WeatherDisplay:10.37,2013-07-21 05:44:00,
2013-07-21 01:45:00,74.2,32.9,30.00,WNW,287,0.0,0.0,22,0.00,CLR,,0.00,WeatherDisplay:10.37,2013-07-21 05:45:00,
2013-07-21 01:48:00,74.2,32.9,30.00,WNW,287,0.0,0.0,22,0.00,CLR,,0.00,WeatherDisplay:10.37,2013-07-21 05:48:00,
2013-07-21 01:50:00,74.2,32.9,30.00,WNW,287,0.0,0.0,22,0.00,CLR,,0.00,WeatherDisplay:10.37,2013-07-21 05:50:00,
2013-07-21 01:53:00,74.2,32.9,30.00,WNW,287,0.0,0.0,22,0.00,CLR,,0.00,WeatherDisplay:10.37,2013-07-21 05:53:00,
2013-07-21 01:54:00,74.2,32.9,30.00,WNW,287,0.0,0.0,22,0.00,CLR,,0.00,WeatherDisplay:10.37,2013-07-21 05:54:00,
2013-07-21 01:55:00,74.2,32.9,30.00,WNW,287,0.0,0.0,22,0.00,CLR,,0.00,WeatherDisplay:10.37,2013-07-21 05:55:00,
2013-07-21 01:58:00,74.2,31.7,30.00,WNW,287,0.0,0.0,21,0.00,CLR,,0.00,WeatherDisplay:10.37,2013-07-21 05:58:00,
2013-07-21 01:59:00,74.2,32.9,30.00,WNW,287,0.0,0.0,22,0.00,CLR,,0.00,WeatherDisplay:10.37,2013-07-21 05:59:00,
2013-07-21 02:00:00,74.2,32.9,30.00,WNW,287,0.0,0.0,22,0.00,CLR,,0.00,WeatherDisplay:10.37,2013-07-21 06:00:00,
2013-07-21 02:03:00,74.2,32.9,30.00,WNW,287,0.0,0.0,22,0.00,CLR,,0.00,WeatherDisplay:10.37,2013-07-21 06:03:00,
2013-07-21 02:04:00,74.2,32.9,30.00,WNW,287,0.0,0.0,22,0.00,CLR,,0.00,WeatherDisplay:10.37,2013-07-21 06:04:00,
2013-07-21 02:05:00,74.2,32.9,30.00,WNW,287,0.0,0.0,22,0.00,CLR,,0.00,WeatherDisplay:10.37,2013-07-21 06:05:00,
2013-07-21 02:06:00,74.2,32.9,30.00,WNW,287,0.0,0.0,22,0.00,CLR,,0.00,WeatherDisplay:10.37,2013-07-21 06:06:00,
2013-07-21 02:08:00,74.2,31.7,30.00,WNW,287,0.0,0.0,21,0.00,CLR,,0.00,WeatherDisplay:10.37,2013-07-21 06:08:00,
2013-07-21 02:09:00,74.2,32.9,30.00,WNW,287,0.0,0.0,22,0.00,CLR,,0.00,WeatherDisplay:10.37,2013-07-21 06:09:00,
2013-07-21 02:10:00,74.2,32.9,30.00,WNW,287,0.0,0.0,22,0.00,CLR,,0.00,WeatherDisplay:10.37,2013-07-21 06:10:00,
2013-07-21 02:11:00,74.2,32.9,30.00,WNW,287,0.0,0.0,22,0.00,CLR,,0.00,WeatherDisplay:10.37,2013-07-21 06:11:00,
2013-07-21 02:14:00,74.2,31.7,30.00,WNW,287,0.0,0.0,21,0.00,CLR,,0.00,WeatherDisplay:10.37,2013-07-21 06:14:00,
2013-07-21 02:15:00,74.3,31.8,29.99,WNW,287,0.0,0.0,21,0.00,CLR,,0.00,WeatherDisplay:10.37,2013-07-21 06:15:00,
2013-07-21 02:16:00,74.2,30.5,29.99,WNW,287,0.0,0.0,20,0.00,CLR,,0.00,WeatherDisplay:10.37,2013-07-21 06:16:00,
2013-07-21 02:17:00,74.2,27.9,29.99,WNW,287,0.0,0.0,18,0.00,CLR,,0.00,WeatherDisplay:10.37,2013-07-21 06:17:00,
2013-07-21 02:19:00,74.1,29.2,29.99,WNW,287,0.0,0.0,19,0.00,CLR,,0.00,WeatherDisplay:10.37,2013-07-21 06:19:00,
2013-07-21 02:20:00,74.2,21.9,29.99,WNW,287,0.0,0.0,14,0.00,CLR,,0.00,WeatherDisplay:10.37,2013-07-21 06:20:00,
2013-07-21 02:21:00,74.2,23.5,29.99,WNW,287,0.0,0.0,15,0.00,CLR,,0.00,WeatherDisplay:10.37,2013-07-21 06:21:00,
2013-07-21 02:22:00,74.2,30.5,29.99,WNW,287,0.0,0.0,20,0.00,CLR,,0.00,WeatherDisplay:10.37,2013-07-21 06:22:00,
2013-07-21 02:24:00,74.1,31.6,29.99,WNW,287,0.0,0.0,21,0.00,CLR,,0.00,WeatherDisplay:10.37,2013-07-21 06:24:00,
2013-07-21 02:25:00,74.2,29.3,29.99,WNW,287,0.0,0.0,19,0.00,CLR,,0.00,WeatherDisplay:10.37,2013-07-21 06:25:00,
2013-07-21 02:26:00,74.2,27.9,29.99,WNW,287,0.0,0.0,18,0.00,CLR,,0.00,WeatherDisplay:10.37,2013-07-21 06:26:00,
2013-07-21 02:27:00,74.2,27.9,29.99,WNW,287,0.0,0.0,18,0.00,CLR,,0.00,WeatherDisplay:10.37,2013-07-21 06:27:00,
2013-07-21 02:29:00,74.2,27.9,29.99,WNW,287,0.0,0.0,18,0.00,CLR,,0.00,WeatherDisplay:10.37,2013-07-21 06:29:00,
2013-07-21 02:31:00,74.2,23.5,29.99,WNW,287,0.0,0.0,15,0.00,CLR,,0.00,WeatherDisplay:10.37,2013-07-21 06:31:00,
2013-07-21 02:32:00,74.2,21.9,29.99,WNW,287,0.0,0.0,14,0.00,CLR,,0.00,WeatherDisplay:10.37,2013-07-21 06:32:00,
2013-07-21 02:34:00,74.2,16.3,29.99,WNW,287,0.0,0.0,11,0.00,CLR,,0.00,WeatherDisplay:10.37,2013-07-21 06:34:00,
2013-07-21 02:36:00,74.2,14.1,29.99,WNW,287,0.0,0.0,10,0.00,CLR,,0.00,WeatherDisplay:10.37,2013-07-21 06:36:00,
2013-07-21 02:37:00,74.2,26.5,29.99,WNW,287,0.0,0.0,17,0.00,CLR,,0.00,WeatherDisplay:10.37,2013-07-21 06:37:00,
2013-07-21 02:40:00,74.3,29.3,29.99,WNW,287,0.0,0.0,19,0.00,CLR,,0.00,WeatherDisplay:10.37,2013-07-21 06:40:00,
2013-07-21 02:41:00,74.2,30.5,29.99,WNW,287,0.0,0.0,20,0.00,CLR,,0.00,WeatherDisplay:10.37,2013-07-21 06:41:00,
2013-07-21 02:42:00,74.2,29.3,29.99,WNW,287,0.0,0.0,19,0.00,CLR,,0.00,WeatherDisplay:10.37,2013-07-21 06:42:00,
2013-07-21 02:43:00,74.2,29.3,29.99,WNW,287,0.0,0.0,19,0.00,CLR,,0.00,WeatherDisplay:10.37,2013-07-21 06:43:00,
2013-07-21 02:45:00,74.2,30.5,29.99,WNW,287,0.0,0.0,20,0.00,CLR,,0.00,WeatherDisplay:10.37,2013-07-21 06:45:00,
2013-07-21 02:46:00,74.3,30.6,29.99,North,353,0.9,5.8,20,0.00,CLR,,0.00,WeatherDisplay:10.37,2013-07-21 06:46:00,
2013-07-21 02:48:00,74.2,30.5,29.98,North,353,0.0,0.0,20,0.00,CLR,,0.00,WeatherDisplay:10.37,2013-07-21 06:48:00,
2013-07-21 02:50:00,74.2,31.7,29.98,North,353,0.0,0.0,21,0.00,CLR,,0.00,WeatherDisplay:10.37,2013-07-21 06:50:00,
2013-07-21 02:51:00,74.2,31.7,29.98,North,353,0.0,0.0,21,0.00,CLR,,0.00,WeatherDisplay:10.37,2013-07-21 06:51:00,
2013-07-21 02:53:00,74.2,32.9,29.98,North,353,0.0,0.0,22,0.00,CLR,,0.00,WeatherDisplay:10.37,2013-07-21 06:53:00,
2013-07-21 02:55:00,74.2,34.0,29.98,North,353,0.0,0.0,23,0.00,CLR,,0.00,WeatherDisplay:10.37,2013-07-21 06:55:00,
2013-07-21 02:57:00,74.2,34.0,29.98,North,353,0.0,0.0,23,0.00,CLR,,0.00,WeatherDisplay:10.37,2013-07-21 06:57:00,
2013-07-21 02:58:00,74.2,34.0,29.98,North,353,0.0,0.0,23,0.00,CLR,,0.00,WeatherDisplay:10.37,2013-07-21 06:58:00,
2013-07-21 02:59:00,74.2,35.1,29.98,North,353,0.0,0.0,24,0.00,CLR,,0.00,WeatherDisplay:10.37,2013-07-21 06:59:00,
2013-07-21 03:00:00,74.1,35.0,29.98,West,274,0.6,4.7,24,0.00,CLR,,0.00,WeatherDisplay:10.37,2013-07-21 07:00:00,
2013-07-21 03:02:00,73.9,37.8,29.98,WNW,302,2.0,6.1,27,0.00,CLR,,0.00,WeatherDisplay:10.37,2013-07-21 07:02:00,
2013-07-21 03:03:00,73.7,37.6,29.98,WNW,302,2.5,6.9,27,0.00,CLR,,0.00,WeatherDisplay:10.37,2013-07-21 07:03:00,
2013-07-21 03:04:00,73.9,37.8,29.99,NW,320,0.3,3.5,27,0.00,CLR,,0.00,WeatherDisplay:10.37,2013-07-21 07:04:00,
2013-07-21 03:05:00,73.9,37.8,29.99,NW,320,0.0,0.0,27,0.00,CLR,,0.00,WeatherDisplay:10.37,2013-07-21 07:05:00,
2013-07-21 03:07:00,73.8,38.6,29.98,NW,320,0.0,0.0,28,0.00,CLR,,0.00,WeatherDisplay:10.37,2013-07-21 07:07:00,
2013-07-21 03:08:00,73.6,38.5,29.99,NW,320,0.0,0.0,28,0.00,CLR,,0.00,WeatherDisplay:10.37,2013-07-21 07:08:00,
2013-07-21 03:10:00,73.9,39.6,29.99,NW,320,0.0,0.0,29,0.00,CLR,,0.00,WeatherDisplay:10.37,2013-07-21 07:10:00,
2013-07-21 03:12:00,73.6,39.4,29.98,NW,320,0.0,0.0,29,0.00,CLR,,0.00,WeatherDisplay:10.37,2013-07-21 07:12:00,
2013-07-21 03:13:00,73.6,40.2,29.98,NW,320,0.0,0.0,30,0.00,CLR,,0.00,WeatherDisplay:10.37,2013-07-21 07:13:00,
2013-07-21 03:15:00,73.5,39.3,29.99,NW,320,0.0,0.0,29,0.00,CLR,,0.00,WeatherDisplay:10.37,2013-07-21 07:15:00,
2013-07-21 03:16:00,73.4,40.1,29.99,NW,320,0.0,0.0,30,0.00,CLR,,0.00,WeatherDisplay:10.37,2013-07-21 07:16:00,
2013-07-21 03:17:00,73.5,40.2,29.99,NW,320,0.0,0.0,30,0.00,CLR,,0.00,WeatherDisplay:10.37,2013-07-21 07:17:00,
2013-07-21 03:19:00,73.5,40.2,29.98,NW,320,0.0,0.0,30,0.00,CLR,,0.00,WeatherDisplay:10.37,2013-07-21 07:19:00,
2013-07-21 03:20:00,73.4,40.1,29.99,NW,320,0.0,0.0,30,0.00,CLR,,0.00,WeatherDisplay:10.37,2013-07-21 07:20:00,
2013-07-21 03:21:00,73.4,40.9,29.99,NW,320,0.0,0.0,31,0.00,CLR,,0.00,WeatherDisplay:10.37,2013-07-21 07:21:00,
2013-07-21 03:23:00,73.3,40.8,29.98,NW,320,0.0,0.0,31,0.00,CLR,,0.00,WeatherDisplay:10.37,2013-07-21 07:23:00,
2013-07-21 03:24:00,73.2,40.7,29.98,NW,320,0.0,0.0,31,0.00,CLR,,0.00,WeatherDisplay:10.37,2013-07-21 07:24:00,
2013-07-21 03:25:00,73.3,40.8,29.98,North,353,0.8,5.8,31,0.00,CLR,,0.00,WeatherDisplay:10.37,2013-07-21 07:25:00,
2013-07-21 03:27:00,73.3,40.8,29.98,North,353,0.0,0.0,31,0.00,CLR,,0.00,WeatherDisplay:10.37,2013-07-21 07:27:00,
2013-07-21 03:28:00,73.3,41.6,29.98,North,353,0.0,0.0,32,0.00,CLR,,0.00,WeatherDisplay:10.37,2013-07-21 07:28:00,
2013-07-21 03:29:00,73.2,41.6,29.98,North,353,0.0,0.0,32,0.00,CLR,,0.00,WeatherDisplay:10.37,2013-07-21 07:29:00,
2013-07-21 03:30:00,73.2,41.6,29.98,North,353,0.0,0.0,32,0.00,CLR,,0.00,WeatherDisplay:10.37,2013-07-21 07:30:00,
2013-07-21 03:31:00,73.2,41.6,29.98,North,353,0.0,0.0,32,0.00,CLR,,0.00,WeatherDisplay:10.37,2013-07-21 07:31:00,
2013-07-21 03:32:00,73.4,42.5,29.98,North,353,0.0,0.0,33,0.00,CLR,,0.00,WeatherDisplay:10.37,2013-07-21 07:32:00,
2013-07-21 03:33:00,73.2,42.4,29.98,North,353,0.0,0.0,33,0.00,CLR,,0.00,WeatherDisplay:10.37,2013-07-21 07:33:00,
2013-07-21 03:34:00,73.0,42.2,29.98,North,353,0.5,3.5,33,0.00,CLR,,0.00,WeatherDisplay:10.37,2013-07-21 07:34:00,
2013-07-21 03:35:00,72.9,42.1,29.99,North,353,0.0,0.0,33,0.00,CLR,,0.00,WeatherDisplay:10.37,2013-07-21 07:35:00,
2013-07-21 03:36:00,73.2,42.4,29.99,North,353,0.0,0.0,33,0.00,CLR,,0.00,WeatherDisplay:10.37,2013-07-21 07:36:00,
2013-07-21 03:37:00,73.1,43.1,29.99,NW,320,3.0,4.4,34,0.00,CLR,,0.00,WeatherDisplay:10.37,2013-07-21 07:37:00,
2013-07-21 03:38:00,73.0,43.0,29.98,North,354,2.7,5.8,34,0.00,CLR,,0.00,WeatherDisplay:10.37,2013-07-21 07:38:00,
2013-07-21 03:39:00,73.0,43.7,29.99,North,354,0.0,3.5,35,0.00,CLR,,0.00,WeatherDisplay:10.37,2013-07-21 07:39:00,
2013-07-21 03:40:00,72.9,43.6,29.98,North,354,0.0,0.0,35,0.00,CLR,,0.00,WeatherDisplay:10.37,2013-07-21 07:40:00,
2013-07-21 03:41:00,72.9,43.6,29.99,North,354,0.0,0.0,35,0.00,CLR,,0.00,WeatherDisplay:10.37,2013-07-21 07:41:00,
2013-07-21 03:43:00,73.0,43.7,29.98,North,354,0.0,0.0,35,0.00,CLR,,0.00,WeatherDisplay:10.37,2013-07-21 07:43:00,
2013-07-21 03:44:00,72.9,43.6,29.98,North,354,0.0,0.0,35,0.00,CLR,,0.00,WeatherDisplay:10.37,2013-07-21 07:44:00,
2013-07-21 03:46:00,72.7,43.5,29.98,North,354,0.0,0.0,35,0.00,CLR,,0.00,WeatherDisplay:10.37,2013-07-21 07:46:00,
2013-07-21 03:48:00,72.9,43.6,29.98,North,354,0.0,0.0,35,0.00,CLR,,0.00,WeatherDisplay:10.37,2013-07-21 07:48:00,
2013-07-21 03:49:00,72.8,42.8,29.98,North,354,0.0,0.0,34,0.00,CLR,,0.00,WeatherDisplay:10.37,2013-07-21 07:49:00,
2013-07-21 03:51:00,73.1,43.8,29.98,North,354,0.0,0.0,35,0.00,CLR,,0.00,WeatherDisplay:10.37,2013-07-21 07:51:00,
2013-07-21 03:52:00,73.1,43.1,29.98,North,354,0.0,0.0,34,0.00,CLR,,0.00,WeatherDisplay:10.37,2013-07-21 07:52:00,
2013-07-21 03:53:00,73.0,43.0,29.98,North,354,0.0,0.0,34,0.00,CLR,,0.00,WeatherDisplay:10.37,2013-07-21 07:53:00,
2013-07-21 03:54:00,73.0,43.7,29.98,North,354,0.0,0.0,35,0.00,CLR,,0.00,WeatherDisplay:10.37,2013-07-21 07:54:00,
2013-07-21 03:56:00,72.8,44.3,29.98,North,354,0.0,0.0,36,0.00,CLR,,0.00,WeatherDisplay:10.37,2013-07-21 07:56:00,
2013-07-21 03:57:00,72.9,44.4,29.98,North,354,0.0,0.0,36,0.00,CLR,,0.00,WeatherDisplay:10.37,2013-07-21 07:57:00,
2013-07-21 03:58:00,72.8,44.3,29.98,North,354,0.0,0.0,36,0.00,CLR,,0.00,WeatherDisplay:10.37,2013-07-21 07:58:00,
2013-07-21 04:00:00,72.9,45.1,29.98,North,354,0.0,0.0,37,0.00,CLR,,0.00,WeatherDisplay:10.37,2013-07-21 08:00:00,
2013-07-21 04:01:00,72.7,44.9,29.99,North,354,0.0,0.0,37,0.00,CLR,,0.00,WeatherDisplay:10.37,2013-07-21 08:01:00,
2013-07-21 04:02:00,72.7,44.9,29.99,North,354,0.0,0.0,37,0.00,CLR,,0.00,WeatherDisplay:10.37,2013-07-21 08:02:00,
2013-07-21 04:03:00,72.7,44.9,29.99,North,354,0.0,0.0,37,0.00,CLR,,0.00,WeatherDisplay:10.37,2013-07-21 08:03:00,
2013-07-21 04:05:00,72.8,45.0,29.99,North,354,0.0,0.0,37,0.00,CLR,,0.00,WeatherDisplay:10.37,2013-07-21 08:05:00,
2013-07-21 04:06:00,72.8,45.0,29.99,North,354,0.0,0.0,37,0.00,CLR,,0.00,WeatherDisplay:10.37,2013-07-21 08:06:00,
2013-07-21 04:07:00,72.5,45.4,29.99,North,354,0.0,0.0,38,0.00,CLR,,0.00,WeatherDisplay:10.37,2013-07-21 08:07:00,
2013-07-21 04:08:00,72.7,45.6,29.99,North,354,0.0,0.0,38,0.00,CLR,,0.00,WeatherDisplay:10.37,2013-07-21 08:08:00,
2013-07-21 04:10:00,72.7,44.9,29.99,North,354,0.0,0.0,37,0.00,CLR,,0.00,WeatherDisplay:10.37,2013-07-21 08:10:00,
2013-07-21 04:11:00,72.6,44.8,29.99,North,354,0.0,0.0,37,0.00,CLR,,0.00,WeatherDisplay:10.37,2013-07-21 08:11:00,
2013-07-21 04:13:00,72.7,44.2,29.99,North,354,0.0,0.0,36,0.00,CLR,,0.00,WeatherDisplay:10.37,2013-07-21 08:13:00,
2013-07-21 04:15:00,72.8,45.0,29.99,North,354,0.0,0.0,37,0.00,CLR,,0.00,WeatherDisplay:10.37,2013-07-21 08:15:00,
2013-07-21 04:16:00,72.9,45.1,29.99,North,354,0.0,0.0,37,0.00,CLR,,0.00,WeatherDisplay:10.37,2013-07-21 08:16:00,
2013-07-21 04:18:00,72.6,44.8,29.99,North,354,0.0,0.0,37,0.00,CLR,,0.00,WeatherDisplay:10.37,2013-07-21 08:18:00,
2013-07-21 04:20:00,73.0,44.5,29.99,North,354,0.0,0.0,36,0.00,CLR,,0.00,WeatherDisplay:10.37,2013-07-21 08:20:00,
2013-07-21 04:22:00,72.9,45.1,29.99,North,354,0.0,0.0,37,0.00,CLR,,0.00,WeatherDisplay:10.37,2013-07-21 08:22:00,
2013-07-21 04:23:00,72.7,44.2,29.99,North,354,0.0,0.0,36,0.00,CLR,,0.00,WeatherDisplay:10.37,2013-07-21 08:23:00,
2013-07-21 04:26:00,72.9,45.1,29.99,North,354,0.0,0.0,37,0.00,CLR,,0.00,WeatherDisplay:10.37,2013-07-21 08:26:00,
2013-07-21 04:27:00,72.7,45.6,29.98,North,354,0.0,0.0,38,0.00,CLR,,0.00,WeatherDisplay:10.37,2013-07-21 08:27:00,
2013-07-21 04:28:00,72.5,45.4,29.98,North,354,0.0,0.0,38,0.00,CLR,,0.00,WeatherDisplay:10.37,2013-07-21 08:28:00,
2013-07-21 04:29:00,72.7,45.6,29.98,North,354,0.0,0.0,38,0.00,CLR,,0.00,WeatherDisplay:10.37,2013-07-21 08:29:00,
2013-07-21 04:31:00,72.4,46.0,29.98,North,354,0.0,0.0,39,0.00,CLR,,0.00,WeatherDisplay:10.37,2013-07-21 08:31:00,
2013-07-21 04:32:00,72.7,44.9,29.98,North,354,0.0,0.0,37,0.00,CLR,,0.00,WeatherDisplay:10.37,2013-07-21 08:32:00,
2013-07-21 04:33:00,72.5,45.4,29.98,North,354,0.0,0.0,38,0.00,CLR,,0.00,WeatherDisplay:10.37,2013-07-21 08:33:00,
2013-07-21 04:34:00,72.5,45.4,29.98,North,354,0.0,0.0,38,0.00,CLR,,0.00,WeatherDisplay:10.37,2013-07-21 08:34:00,
2013-07-21 04:36:00,72.3,45.3,29.98,North,354,0.0,0.0,38,0.00,CLR,,0.00,WeatherDisplay:10.37,2013-07-21 08:36:00,
2013-07-21 04:38:00,72.5,45.4,29.98,North,354,0.0,0.0,38,0.00,CLR,,0.00,WeatherDisplay:10.37,2013-07-21 08:38:00,
2013-07-21 04:39:00,72.4,45.4,29.98,North,354,0.0,0.0,38,0.00,CLR,,0.00,WeatherDisplay:10.37,2013-07-21 08:39:00,
2013-07-21 04:41:00,72.6,45.5,29.98,North,354,0.0,0.0,38,0.00,CLR,,0.00,WeatherDisplay:10.37,2013-07-21 08:41:00,
2013-07-21 04:43:00,72.5,46.1,29.98,North,354,0.0,0.0,39,0.00,CLR,,0.00,WeatherDisplay:10.37,2013-07-21 08:43:00,
2013-07-21 04:44:00,72.2,45.9,29.98,North,354,0.0,0.0,39,0.00,CLR,,0.00,WeatherDisplay:10.37,2013-07-21 08:44:00,
2013-07-21 04:46:00,72.6,45.5,29.98,North,354,0.0,0.0,38,0.00,CLR,,0.00,WeatherDisplay:10.37,2013-07-21 08:46:00,
2013-07-21 04:48:00,72.5,45.4,29.98,North,354,0.0,0.0,38,0.00,CLR,,0.00,WeatherDisplay:10.37,2013-07-21 08:48:00,
2013-07-21 04:49:00,72.6,45.5,29.98,North,354,0.0,0.0,38,0.00,CLR,,0.00,WeatherDisplay:10.37,2013-07-21 08:49:00,
2013-07-21 04:51:00,72.6,44.8,29.98,North,354,0.0,0.0,37,0.00,CLR,,0.00,WeatherDisplay:10.37,2013-07-21 08:51:00,
2013-07-21 04:52:00,72.3,45.3,29.98,North,354,0.0,0.0,38,0.00,CLR,,0.00,WeatherDisplay:10.37,2013-07-21 08:52:00,
2013-07-21 04:54:00,72.3,45.3,29.98,North,354,0.0,0.0,38,0.00,CLR,,0.00,WeatherDisplay:10.37,2013-07-21 08:54:00,
2013-07-21 04:56:00,72.3,42.3,29.98,North,354,0.0,0.0,34,0.00,CLR,,0.00,WeatherDisplay:10.37,2013-07-21 08:56:00,
2013-07-21 04:57:00,72.2,43.0,29.98,North,354,0.0,0.0,35,0.00,CLR,,0.00,WeatherDisplay:10.37,2013-07-21 08:57:00,
2013-07-21 04:59:00,72.6,44.1,29.98,North,354,0.0,0.0,36,0.00,CLR,,0.00,WeatherDisplay:10.37,2013-07-21 08:59:00,
2013-07-21 05:00:00,72.6,43.4,29.98,North,354,0.0,0.0,35,0.00,CLR,,0.00,WeatherDisplay:10.37,2013-07-21 09:00:00,
2013-07-21 05:01:00,72.5,44.0,29.98,North,354,0.0,0.0,36,0.00,CLR,,0.00,WeatherDisplay:10.37,2013-07-21 09:01:00,
2013-07-21 05:02:00,72.5,44.0,29.98,North,354,0.0,0.0,36,0.00,CLR,,0.00,WeatherDisplay:10.37,2013-07-21 09:02:00,
2013-07-21 05:04:00,72.2,39.9,29.98,North,354,0.0,0.0,31,0.00,CLR,,0.00,WeatherDisplay:10.37,2013-07-21 09:04:00,
2013-07-21 05:05:00,72.2,38.2,29.98,North,354,0.0,0.0,29,0.00,CLR,,0.00,WeatherDisplay:10.37,2013-07-21 09:05:00,
2013-07-21 05:06:00,72.4,37.4,29.98,North,354,0.0,0.0,28,0.00,CLR,,0.00,WeatherDisplay:10.37,2013-07-21 09:06:00,
2013-07-21 05:07:00,72.4,37.4,29.98,North,354,0.0,0.0,28,0.00,CLR,,0.00,WeatherDisplay:10.37,2013-07-21 09:07:00,
2013-07-21 05:09:00,72.5,41.7,29.99,North,354,0.0,0.0,33,0.00,CLR,,0.00,WeatherDisplay:10.37,2013-07-21 09:09:00,
2013-07-21 05:10:00,72.6,41.8,29.99,North,354,0.0,0.0,33,0.00,CLR,,0.00,WeatherDisplay:10.37,2013-07-21 09:10:00,
2013-07-21 05:11:00,72.4,45.4,29.99,North,354,0.0,0.0,38,0.00,CLR,,0.00,WeatherDisplay:10.37,2013-07-21 09:11:00,
2013-07-21 05:12:00,72.4,44.6,29.99,North,354,0.0,0.0,37,0.00,CLR,,0.00,WeatherDisplay:10.37,2013-07-21 09:12:00,
2013-07-21 05:15:00,72.2,45.2,29.99,North,354,0.0,0.0,38,0.00,CLR,,0.00,WeatherDisplay:10.37,2013-07-21 09:15:00,
2013-07-21 05:17:00,72.1,45.8,29.99,North,354,0.0,0.0,39,0.00,CLR,,0.00,WeatherDisplay:10.37,2013-07-21 09:17:00,
2013-07-21 05:20:00,72.0,46.3,29.99,North,354,0.0,0.0,40,0.00,CLR,,0.00,WeatherDisplay:10.37,2013-07-21 09:20:00,
2013-07-21 05:22:00,71.8,47.5,29.99,North,354,0.0,0.0,42,0.00,CLR,,0.00,WeatherDisplay:10.37,2013-07-21 09:22:00,
2013-07-21 05:25:00,71.9,47.6,29.99,North,354,0.0,0.0,42,0.00,CLR,,0.00,WeatherDisplay:10.37,2013-07-21 09:25:00,
2013-07-21 05:26:00,71.7,47.4,29.99,North,354,0.0,0.0,42,0.00,CLR,,0.00,WeatherDisplay:10.37,2013-07-21 09:26:00,
2013-07-21 05:27:00,72.0,47.6,29.99,North,354,0.0,0.0,42,0.00,CLR,,0.00,WeatherDisplay:10.37,2013-07-21 09:27:00,
2013-07-21 05:30:00,71.6,47.9,29.99,North,354,0.0,0.0,43,0.00,CLR,,0.00,WeatherDisplay:10.37,2013-07-21 09:30:00,
2013-07-21 05:31:00,71.6,48.5,30.00,North,354,0.0,0.0,44,0.00,CLR,,0.00,WeatherDisplay:10.37,2013-07-21 09:31:00,
2013-07-21 05:32:00,71.7,48.6,30.00,North,354,0.0,0.0,44,0.00,CLR,,0.00,WeatherDisplay:10.37,2013-07-21 09:32:00,
2013-07-21 05:33:00,71.8,49.3,30.00,North,354,0.0,0.0,45,0.00,CLR,,0.00,WeatherDisplay:10.37,2013-07-21 09:33:00,
2013-07-21 05:35:00,71.7,50.4,30.00,North,354,0.0,0.0,47,0.00,CLR,,0.00,WeatherDisplay:10.37,2013-07-21 09:35:00,
2013-07-21 05:36:00,71.5,50.2,30.00,North,354,0.0,0.0,47,0.00,CLR,,0.00,WeatherDisplay:10.37,2013-07-21 09:36:00,
2013-07-21 05:37:00,71.6,50.3,30.00,North,354,0.0,0.0,47,0.00,CLR,,0.00,WeatherDisplay:10.37,2013-07-21 09:37:00,
2013-07-21 05:38:00,71.6,50.3,30.00,North,354,0.0,0.0,47,0.00,CLR,,0.00,WeatherDisplay:10.37,2013-07-21 09:38:00,
2013-07-21 05:40:00,71.6,50.3,30.00,North,354,0.0,0.0,47,0.00,CLR,,0.00,WeatherDisplay:10.37,2013-07-21 09:40:00,
2013-07-21 05:42:00,71.3,48.9,30.00,North,354,0.0,0.0,45,0.00,CLR,,0.00,WeatherDisplay:10.37,2013-07-21 09:42:00,
2013-07-21 05:43:00,71.2,46.9,30.00,North,354,0.0,0.0,42,0.00,CLR,,0.00,WeatherDisplay:10.37,2013-07-21 09:43:00,
2013-07-21 05:45:00,71.2,45.6,30.00,North,354,0.0,0.0,40,0.00,CLR,,0.00,WeatherDisplay:10.37,2013-07-21 09:45:00,
2013-07-21 05:47:00,71.6,46.0,30.00,North,354,0.0,0.0,40,0.00,CLR,,0.00,WeatherDisplay:10.37,2013-07-21 09:47:00,
2013-07-21 05:48:00,71.2,45.6,30.00,North,354,0.0,0.0,40,0.00,CLR,,0.00,WeatherDisplay:10.37,2013-07-21 09:48:00,
2013-07-21 05:50:00,71.4,43.0,30.00,North,354,0.0,0.0,36,0.00,CLR,,0.00,WeatherDisplay:10.37,2013-07-21 09:50:00,
2013-07-21 05:51:00,71.1,42.8,30.00,North,354,0.0,0.0,36,0.00,CLR,,0.00,WeatherDisplay:10.37,2013-07-21 09:51:00,
2013-07-21 05:52:00,71.2,40.6,30.00,North,354,0.0,0.0,33,0.00,CLR,,0.00,WeatherDisplay:10.37,2013-07-21 09:52:00,
2013-07-21 05:54:00,71.4,40.0,30.00,North,354,0.0,0.0,32,0.00,CLR,,0.00,WeatherDisplay:10.37,2013-07-21 09:54:00,
2013-07-21 05:55:00,71.4,33.7,30.00,North,354,0.0,0.0,25,0.00,CLR,,0.00,WeatherDisplay:10.37,2013-07-21 09:55:00,
2013-07-21 05:56:00,71.5,32.8,30.00,North,354,0.0,0.0,24,0.00,CLR,,0.00,WeatherDisplay:10.37,2013-07-21 09:56:00,
2013-07-21 05:57:00,71.7,31.9,30.00,North,354,0.0,0.0,23,0.00,CLR,,0.00,WeatherDisplay:10.37,2013-07-21 09:57:00,
2013-07-21 05:59:00,71.9,38.8,30.00,North,354,0.0,0.0,30,0.00,CLR,,0.00,WeatherDisplay:10.37,2013-07-21 09:59:00,
2013-07-21 06:01:00,72.0,39.7,30.00,North,354,0.0,0.0,31,0.00,CLR,,0.00,WeatherDisplay:10.37,2013-07-21 10:01:00,
2013-07-21 06:02:00,71.9,42.0,30.00,North,354,0.0,0.0,34,0.00,CLR,,0.00,WeatherDisplay:10.37,2013-07-21 10:02:00,
2013-07-21 06:04:00,71.7,42.6,30.00,North,354,0.0,0.0,35,0.00,CLR,,0.00,WeatherDisplay:10.37,2013-07-21 10:04:00,
2013-07-21 06:06:00,71.5,43.1,30.00,North,354,0.0,0.0,36,0.00,CLR,,0.00,WeatherDisplay:10.37,2013-07-21 10:06:00,
2013-07-21 06:08:00,71.2,42.9,30.00,North,354,0.0,0.0,36,0.00,CLR,,0.00,WeatherDisplay:10.37,2013-07-21 10:08:00,
2013-07-21 06:10:00,71.1,41.3,30.00,North,354,0.0,0.0,34,0.00,CLR,,0.00,WeatherDisplay:10.37,2013-07-21 10:10:00,
2013-07-21 06:11:00,71.0,41.2,30.00,North,354,0.0,0.0,34,0.00,CLR,,0.00,WeatherDisplay:10.37,2013-07-21 10:11:00,
2013-07-21 06:13:00,71.0,41.2,30.00,North,354,0.0,0.0,34,0.00,CLR,,0.00,WeatherDisplay:10.37,2013-07-21 10:13:00,
2013-07-21 06:15:00,70.9,37.9,30.00,North,354,0.0,0.0,30,0.00,CLR,,0.00,WeatherDisplay:10.37,2013-07-21 10:15:00,
2013-07-21 06:16:00,71.0,34.4,30.00,North,354,0.0,0.0,26,0.00,CLR,,0.00,WeatherDisplay:10.37,2013-07-21 10:16:00,
2013-07-21 06:18:00,71.3,32.6,30.00,North,354,0.0,0.0,24,0.00,CLR,,0.00,WeatherDisplay:10.37,2013-07-21 10:18:00,
2013-07-21 06:20:00,71.3,31.6,30.00,North,354,0.0,0.0,23,0.00,CLR,,0.00,WeatherDisplay:10.37,2013-07-21 10:20:00,
2013-07-21 06:21:00,71.3,32.6,30.00,North,354,0.0,0.0,24,0.00,CLR,,0.00,WeatherDisplay:10.37,2013-07-21 10:21:00,
2013-07-21 06:22:00,71.7,34.0,30.00,North,354,0.0,0.0,25,0.00,CLR,,0.00,WeatherDisplay:10.37,2013-07-21 10:22:00,
2013-07-21 06:23:00,71.7,35.0,30.00,North,354,0.0,0.0,26,0.00,CLR,,0.00,WeatherDisplay:10.37,2013-07-21 10:23:00,
2013-07-21 06:24:00,71.5,35.7,30.00,North,354,0.0,0.0,27,0.00,CLR,,0.00,WeatherDisplay:10.37,2013-07-21 10:24:00,
2013-07-21 06:25:00,71.5,34.8,30.00,North,354,0.0,0.0,26,0.00,CLR,,0.00,WeatherDisplay:10.37,2013-07-21 10:25:00,
2013-07-21 06:27:00,71.5,35.7,30.00,North,354,0.0,0.0,27,0.00,CLR,,0.00,WeatherDisplay:10.37,2013-07-21 10:27:00,
2013-07-21 06:28:00,71.4,30.5,30.00,North,354,0.0,0.0,22,0.00,CLR,,0.00,WeatherDisplay:10.37,2013-07-21 10:28:00,
2013-07-21 06:29:00,71.4,29.4,30.00,North,354,0.0,0.0,21,0.00,CLR,,0.00,WeatherDisplay:10.37,2013-07-21 10:29:00,
2013-07-21 06:30:00,71.5,35.7,30.00,North,354,0.0,0.0,27,0.00,CLR,,0.00,WeatherDisplay:10.37,2013-07-21 10:30:00,
2013-07-21 06:32:00,71.3,32.6,30.00,North,354,0.0,0.0,24,0.00,CLR,,0.00,WeatherDisplay:10.37,2013-07-21 10:32:00,
2013-07-21 06:33:00,71.2,31.5,30.00,North,354,0.0,0.0,23,0.00,CLR,,0.00,WeatherDisplay:10.37,2013-07-21 10:33:00,
2013-07-21 06:34:00,71.5,31.7,30.00,North,354,0.0,0.0,23,0.00,CLR,,0.00,WeatherDisplay:10.37,2013-07-21 10:34:00,
2013-07-21 06:35:00,71.7,31.9,30.00,North,354,0.0,0.0,23,0.00,CLR,,0.00,WeatherDisplay:10.37,2013-07-21 10:35:00,
2013-07-21 06:37:00,71.5,28.3,30.00,North,354,0.0,0.0,20,0.00,CLR,,0.00,WeatherDisplay:10.37,2013-07-21 10:37:00,
2013-07-21 06:38:00,71.6,29.6,30.00,North,354,0.0,0.0,21,0.00,CLR,,0.00,WeatherDisplay:10.37,2013-07-21 10:38:00,
2013-07-21 06:39:00,71.7,30.8,30.00,North,354,0.0,0.0,22,0.00,CLR,,0.00,WeatherDisplay:10.37,2013-07-21 10:39:00,
2013-07-21 06:40:00,71.7,29.7,30.00,North,354,0.0,0.0,21,0.00,CLR,,0.00,WeatherDisplay:10.37,2013-07-21 10:40:00,
2013-07-21 06:42:00,71.5,25.7,30.00,North,354,0.0,0.0,18,0.00,CLR,,0.00,WeatherDisplay:10.37,2013-07-21 10:42:00,
2013-07-21 06:44:00,71.8,28.5,30.00,North,354,0.0,0.0,20,0.00,CLR,,0.00,WeatherDisplay:10.37,2013-07-21 10:44:00,
2013-07-21 06:45:00,71.9,24.7,30.00,North,354,0.0,0.0,17,0.00,CLR,,0.00,WeatherDisplay:10.37,2013-07-21 10:45:00,
2013-07-21 06:47:00,72.2,26.3,30.00,North,354,0.0,0.0,18,0.00,CLR,,0.00,WeatherDisplay:10.37,2013-07-21 10:47:00,
2013-07-21 06:49:00,72.6,29.2,30.00,North,354,0.0,0.0,20,0.00,CLR,,0.00,WeatherDisplay:10.37,2013-07-21 10:49:00,
2013-07-21 06:51:00,72.6,23.8,30.00,North,354,0.0,0.0,16,0.00,CLR,,0.00,WeatherDisplay:10.37,2013-07-21 10:51:00,
2013-07-21 06:52:00,73.0,38.0,30.00,North,354,0.0,0.0,28,0.00,CLR,,0.00,WeatherDisplay:10.37,2013-07-21 10:52:00,
2013-07-21 06:54:00,73.0,38.9,30.00,North,354,0.0,0.0,29,0.00,CLR,,0.00,WeatherDisplay:10.37,2013-07-21 10:54:00,
2013-07-21 06:55:00,73.0,39.7,30.00,North,354,0.0,0.0,30,0.00,CLR,,0.00,WeatherDisplay:10.37,2013-07-21 10:55:00,
2013-07-21 06:56:00,73.1,39.8,30.00,North,354,0.0,0.0,30,0.00,CLR,,0.00,WeatherDisplay:10.37,2013-07-21 10:56:00,
2013-07-21 06:57:00,73.2,39.9,30.00,North,354,0.0,0.0,30,0.00,CLR,,0.00,WeatherDisplay:10.37,2013-07-21 10:57:00,
2013-07-21 06:59:00,73.0,42.2,30.01,North,354,0.0,0.0,33,0.00,CLR,,0.00,WeatherDisplay:10.37,2013-07-21 10:59:00,
2013-07-21 07:00:00,72.9,42.9,30.00,North,354,0.0,0.0,34,0.00,CLR,,0.00,WeatherDisplay:10.37,2013-07-21 11:00:00,
2013-07-21 07:01:00,73.1,43.8,30.00,North,354,0.0,0.0,35,0.00,CLR,,0.00,WeatherDisplay:10.37,2013-07-21 11:01:00,
2013-07-21 07:02:00,73.0,44.5,30.00,North,354,0.0,0.0,36,0.00,CLR,,0.00,WeatherDisplay:10.37,2013-07-21 11:02:00,
2013-07-21 07:04:00,73.0,44.5,30.01,North,354,0.0,0.0,36,0.00,CLR,,0.00,WeatherDisplay:10.37,2013-07-21 11:04:00,
2013-07-21 07:05:00,73.1,44.5,30.01,North,354,0.0,0.0,36,0.00,CLR,,0.00,WeatherDisplay:10.37,2013-07-21 11:05:00,
2013-07-21 07:06:00,72.9,44.4,30.01,North,354,0.0,0.0,36,0.00,CLR,,0.00,WeatherDisplay:10.37,2013-07-21 11:06:00,
2013-07-21 07:07:00,72.9,44.4,30.01,North,354,0.0,0.0,36,0.00,CLR,,0.00,WeatherDisplay:10.37,2013-07-21 11:07:00,
2013-07-21 07:08:00,72.8,44.3,30.00,North,354,0.0,0.0,36,0.00,CLR,,0.00,WeatherDisplay:10.37,2013-07-21 11:08:00,
2013-07-21 07:09:00,72.9,44.4,30.00,North,354,0.0,0.0,36,0.00,CLR,,0.00,WeatherDisplay:10.37,2013-07-21 11:09:00,
2013-07-21 07:10:00,72.8,44.3,30.00,North,354,0.0,0.0,36,0.00,CLR,,0.00,WeatherDisplay:10.37,2013-07-21 11:10:00,
2013-07-21 07:11:00,72.9,44.4,30.00,North,354,0.0,0.0,36,0.00,CLR,,0.00,WeatherDisplay:10.37,2013-07-21 11:11:00,
2013-07-21 07:12:00,73.0,43.7,30.00,North,354,0.0,0.0,35,0.00,CLR,,0.00,WeatherDisplay:10.37,2013-07-21 11:12:00,
2013-07-21 07:13:00,73.2,43.1,30.00,North,354,0.0,0.0,34,0.00,CLR,,0.00,WeatherDisplay:10.37,2013-07-21 11:13:00,
2013-07-21 07:15:00,73.1,43.1,30.00,North,354,0.0,0.0,34,0.00,CLR,,0.00,WeatherDisplay:10.37,2013-07-21 11:15:00,
2013-07-21 07:16:00,73.2,43.9,30.00,North,354,0.0,0.0,35,0.00,CLR,,0.00,WeatherDisplay:10.37,2013-07-21 11:16:00,
2013-07-21 07:18:00,73.3,44.7,30.00,North,354,0.0,0.0,36,0.00,CLR,,0.00,WeatherDisplay:10.37,2013-07-21 11:18:00,
2013-07-21 07:20:00,72.9,45.1,30.00,North,354,0.0,0.0,37,0.00,CLR,,0.00,WeatherDisplay:10.37,2013-07-21 11:20:00,
2013-07-21 07:22:00,73.1,43.8,30.00,North,354,0.0,0.0,35,0.00,CLR,,0.00,WeatherDisplay:10.37,2013-07-21 11:22:00,
2013-07-21 07:23:00,73.3,44.0,30.00,North,354,0.0,0.0,35,0.00,CLR,,0.00,WeatherDisplay:10.37,2013-07-21 11:23:00,
2013-07-21 07:25:00,73.7,43.6,30.00,North,354,0.0,0.0,34,0.00,CLR,,0.00,WeatherDisplay:10.37,2013-07-21 11:25:00,
2013-07-21 07:26:00,73.7,43.6,30.00,North,354,0.0,0.0,34,0.00,CLR,,0.00,WeatherDisplay:10.37,2013-07-21 11:26:00,
2013-07-21 07:27:00,73.6,42.7,30.00,North,354,0.0,0.0,33,0.00,CLR,,0.00,WeatherDisplay:10.37,2013-07-21 11:27:00,
2013-07-21 07:28:00,73.5,43.4,30.00,North,354,0.0,0.0,34,0.00,CLR,,0.00,WeatherDisplay:10.37,2013-07-21 11:28:00,
2013-07-21 07:30:00,73.8,42.1,30.00,North,354,0.0,0.0,32,0.00,CLR,,0.00,WeatherDisplay:10.37,2013-07-21 11:30:00,
2013-07-21 07:31:00,74.0,42.3,30.00,North,354,0.0,0.0,32,0.00,CLR,,0.00,WeatherDisplay:10.37,2013-07-21 11:31:00,
2013-07-21 07:32:00,73.9,40.5,30.00,North,354,0.0,0.0,30,0.00,CLR,,0.00,WeatherDisplay:10.37,2013-07-21 11:32:00,
2013-07-21 07:33:00,74.2,40.8,30.00,North,354,0.0,0.0,30,0.00,CLR,,0.00,WeatherDisplay:10.37,2013-07-21 11:33:00,
2013-07-21 07:34:00,74.2,39.9,30.00,North,354,0.0,0.0,29,0.00,CLR,,0.00,WeatherDisplay:10.37,2013-07-21 11:34:00,
2013-07-21 07:35:00,74.2,39.0,30.01,North,354,0.0,0.0,28,0.00,CLR,,0.00,WeatherDisplay:10.37,2013-07-21 11:35:00,
2013-07-21 07:36:00,74.2,39.9,30.01,North,354,0.0,0.0,29,0.00,CLR,,0.00,WeatherDisplay:10.37,2013-07-21 11:36:00,
2013-07-21 07:37:00,74.2,39.9,30.01,North,354,0.0,0.0,29,0.00,CLR,,0.00,WeatherDisplay:10.37,2013-07-21 11:37:00,
2013-07-21 07:39:00,74.2,39.0,30.01,North,354,0.0,0.0,28,0.00,CLR,,0.00,WeatherDisplay:10.37,2013-07-21 11:39:00,
2013-07-21 07:40:00,74.2,39.0,30.01,North,354,0.0,0.0,28,0.00,CLR,,0.00,WeatherDisplay:10.37,2013-07-21 11:40:00,
2013-07-21 07:42:00,74.2,38.1,30.01,North,354,0.0,0.0,27,0.00,CLR,,0.00,WeatherDisplay:10.37,2013-07-21 11:42:00,
2013-07-21 07:44:00,74.2,38.1,30.01,North,354,0.0,0.0,27,0.00,CLR,,0.00,WeatherDisplay:10.37,2013-07-21 11:44:00,
2013-07-21 07:45:00,74.2,37.1,30.01,North,354,0.0,0.0,26,0.00,CLR,,0.00,WeatherDisplay:10.37,2013-07-21 11:45:00,
2013-07-21 07:47:00,74.2,38.1,30.00,North,354,0.0,0.0,27,0.00,CLR,,0.00,WeatherDisplay:10.37,2013-07-21 11:47:00,
2013-07-21 07:49:00,74.2,36.1,30.00,North,354,0.0,0.0,25,0.00,CLR,,0.00,WeatherDisplay:10.37,2013-07-21 11:49:00,
2013-07-21 07:50:00,74.4,36.3,30.01,North,354,0.0,0.0,25,0.00,CLR,,0.00,WeatherDisplay:10.37,2013-07-21 11:50:00,
2013-07-21 07:52:00,74.3,36.2,30.01,North,354,0.0,0.0,25,0.00,CLR,,0.00,WeatherDisplay:10.37,2013-07-21 11:52:00,
2013-07-21 07:54:00,74.3,36.2,30.01,North,354,0.0,0.0,25,0.00,CLR,,0.00,WeatherDisplay:10.37,2013-07-21 11:54:00,
2013-07-21 07:55:00,74.6,36.4,30.01,North,354,0.0,0.0,25,0.00,CLR,,0.00,WeatherDisplay:10.37,2013-07-21 11:55:00,
2013-07-21 07:56:00,74.4,36.3,30.01,North,354,0.0,0.0,25,0.00,CLR,,0.00,WeatherDisplay:10.37,2013-07-21 11:56:00,
2013-07-21 07:57:00,74.4,36.3,30.01,North,354,0.0,3.0,25,0.00,CLR,,0.00,WeatherDisplay:10.37,2013-07-21 11:57:00,
2013-07-21 07:58:00,74.5,36.4,30.01,WNW,301,0.7,0.0,25,0.00,CLR,,0.00,WeatherDisplay:10.37,2013-07-21 11:58:00,
2013-07-21 07:59:00,74.5,34.2,30.01,WNW,301,0.0,0.0,23,0.00,CLR,,0.00,WeatherDisplay:10.37,2013-07-21 11:59:00,
2013-07-21 08:00:00,74.7,34.4,30.01,WNW,301,0.0,0.0,23,0.00,CLR,,0.00,WeatherDisplay:10.37,2013-07-21 12:00:00,
2013-07-21 08:01:00,74.9,35.7,30.01,WNW,301,0.0,0.0,24,0.00,CLR,,0.00,WeatherDisplay:10.37,2013-07-21 12:01:00,
2013-07-21 08:02:00,74.9,36.7,30.01,WNW,301,0.0,0.0,25,0.00,CLR,,0.00,WeatherDisplay:10.37,2013-07-21 12:02:00,
2013-07-21 08:03:00,74.8,35.6,30.01,WNW,301,0.0,0.0,24,0.00,CLR,,0.00,WeatherDisplay:10.37,2013-07-21 12:03:00,
2013-07-21 08:04:00,75.2,33.7,30.01,WNW,301,0.0,0.0,22,0.00,CLR,,0.00,WeatherDisplay:10.37,2013-07-21 12:04:00,
2013-07-21 08:05:00,75.2,32.6,30.01,WNW,301,0.0,0.0,21,0.00,CLR,,0.00,WeatherDisplay:10.37,2013-07-21 12:05:00,
2013-07-21 08:06:00,75.3,31.4,30.01,WNW,301,0.0,0.0,20,0.00,CLR,,0.00,WeatherDisplay:10.37,2013-07-21 12:06:00,
2013-07-21 08:08:00,75.4,32.7,30.01,WNW,301,0.0,0.0,21,0.00,CLR,,0.00,WeatherDisplay:10.37,2013-07-21 12:08:00,
2013-07-21 08:09:00,75.4,33.9,30.01,WNW,301,0.0,0.0,22,0.00,CLR,,0.00,WeatherDisplay:10.37,2013-07-21 12:09:00,
2013-07-21 08:10:00,75.7,35.3,30.02,WNW,301,0.0,0.0,23,0.00,CLR,,0.00,WeatherDisplay:10.37,2013-07-21 12:10:00,
2013-07-21 08:12:00,75.1,34.8,30.02,WNW,301,0.0,0.0,23,0.00,CLR,,0.00,WeatherDisplay:10.37,2013-07-21 12:12:00,
2013-07-21 08:13:00,75.2,34.8,30.02,WNW,301,0.0,0.0,23,0.00,CLR,,0.00,WeatherDisplay:10.37,2013-07-21 12:13:00,
2013-07-21 08:14:00,75.2,32.6,30.02,WNW,301,0.0,0.0,21,0.00,CLR,,0.00,WeatherDisplay:10.37,2013-07-21 12:14:00,
2013-07-21 08:16:00,75.0,34.7,30.01,WNW,301,0.0,0.0,23,0.00,CLR,,0.00,WeatherDisplay:10.37,2013-07-21 12:16:00,
2013-07-21 08:18:00,75.6,34.1,30.01,WNW,301,0.0,0.0,22,0.00,CLR,,0.00,WeatherDisplay:10.37,2013-07-21 12:18:00,
2013-07-21 08:19:00,75.3,32.6,30.01,WNW,301,0.0,0.0,21,0.00,CLR,,0.00,WeatherDisplay:10.37,2013-07-21 12:19:00,
2013-07-21 08:22:00,75.7,30.5,30.01,NW,315,0.5,0.0,19,0.00,CLR,,0.00,WeatherDisplay:10.37,2013-07-21 12:22:00,
2013-07-21 08:23:00,75.7,31.8,30.01,NW,315,0.2,2.3,20,0.00,CLR,,0.00,WeatherDisplay:10.37,2013-07-21 12:23:00,
2013-07-21 08:25:00,76.0,32.0,30.01,WNW,301,0.0,2.3,20,0.00,CLR,,0.00,WeatherDisplay:10.37,2013-07-21 12:25:00,
2013-07-21 08:27:00,75.7,33.0,30.01,WNW,301,0.0,0.0,21,0.00,CLR,,0.00,WeatherDisplay:10.37,2013-07-21 12:27:00,
2013-07-21 08:28:00,75.8,31.8,30.02,WNW,301,0.0,0.0,20,0.00,CLR,,0.00,WeatherDisplay:10.37,2013-07-21 12:28:00,
2013-07-21 08:30:00,75.5,30.3,30.02,NW,320,1.1,4.6,19,0.00,CLR,,0.00,WeatherDisplay:10.37,2013-07-21 12:30:00,
2013-07-21 08:33:00,75.8,31.8,30.02,NNW,340,0.4,0.0,20,0.00,CLR,,0.00,WeatherDisplay:10.37,2013-07-21 12:33:00,
2013-07-21 08:35:00,76.1,30.8,30.02,NNW,340,0.0,0.0,19,0.00,CLR,,0.00,WeatherDisplay:10.37,2013-07-21 12:35:00,
2013-07-21 08:38:00,75.9,27.9,30.02,NW,320,0.9,4.6,17,0.00,CLR,,0.00,WeatherDisplay:10.37,2013-07-21 12:38:00,
2013-07-21 08:40:00,76.0,26.5,30.02,NW,325,2.0,4.6,16,0.00,CLR,,0.00,WeatherDisplay:10.37,2013-07-21 12:40:00,
2013-07-21 08:43:00,76.2,25.1,30.02,NNW,347,0.0,0.0,15,0.00,CLR,,0.00,WeatherDisplay:10.37,2013-07-21 12:43:00,
2013-07-21 08:44:00,76.2,23.5,30.02,NW,305,0.7,4.6,14,0.00,CLR,,0.00,WeatherDisplay:10.37,2013-07-21 12:44:00,
2013-07-21 08:45:00,76.1,21.6,30.02,WNW,292,1.9,6.9,13,0.00,CLR,,0.00,WeatherDisplay:10.37,2013-07-21 12:45:00,
2013-07-21 08:48:00,76.1,19.8,30.02,NW,316,0.6,6.9,12,0.00,CLR,,0.00,WeatherDisplay:10.37,2013-07-21 12:48:00,
2013-07-21 08:49:00,76.3,21.8,30.02,West,270,4.7,4.7,13,0.00,CLR,,0.00,WeatherDisplay:10.37,2013-07-21 12:49:00,
2013-07-21 08:50:00,76.3,19.9,30.02,NNW,333,3.4,6.9,12,0.00,CLR,,0.00,WeatherDisplay:10.37,2013-07-21 12:50:00,
2013-07-21 08:53:00,76.2,19.8,30.02,NNW,333,0.0,0.0,12,0.00,CLR,,0.00,WeatherDisplay:10.37,2013-07-21 12:53:00,
2013-07-21 08:54:00,76.5,10.7,30.02,NNW,333,0.0,0.0,8,0.00,CLR,,0.00,WeatherDisplay:10.37,2013-07-21 12:54:00,
2013-07-21 08:56:00,76.5,10.7,30.02,West,264,1.6,5.9,8,0.00,CLR,,0.00,WeatherDisplay:10.37,2013-07-21 12:56:00,
2013-07-21 08:58:00,76.4,15.7,30.02,West,267,0.3,4.6,10,0.00,CLR,,0.00,WeatherDisplay:10.37,2013-07-21 12:58:00,
2013-07-21 08:59:00,76.7,10.9,30.02,West,267,0.0,0.0,8,0.00,CLR,,0.00,WeatherDisplay:10.37,2013-07-21 12:59:00,
2013-07-21 09:01:00,77.3,8.4,30.02,WNW,296,3.5,6.9,7,0.00,CLR,,0.00,WeatherDisplay:10.37,2013-07-21 13:01:00,
2013-07-21 09:03:00,76.4,7.7,30.02,WNW,289,0.0,3.5,7,0.00,CLR,,0.00,WeatherDisplay:10.37,2013-07-21 13:03:00,
2013-07-21 09:04:00,76.6,7.8,30.02,WNW,289,0.0,3.5,7,0.00,CLR,,0.00,WeatherDisplay:10.37,2013-07-21 13:04:00,
2013-07-21 09:06:00,76.7,10.9,30.02,WNW,289,0.0,0.0,8,0.00,CLR,,0.00,WeatherDisplay:10.37,2013-07-21 13:06:00,
2013-07-21 09:08:00,76.5,10.7,30.02,WNW,289,0.0,0.0,8,0.00,CLR,,0.00,WeatherDisplay:10.37,2013-07-21 13:08:00,
2013-07-21 09:09:00,76.7,10.9,30.02,WNW,298,0.4,6.1,8,0.00,CLR,,0.00,WeatherDisplay:10.37,2013-07-21 13:09:00,
2013-07-21 09:11:00,76.6,10.8,30.02,West,271,0.8,4.5,8,0.00,CLR,,0.00,WeatherDisplay:10.37,2013-07-21 13:11:00,
2013-07-21 09:13:00,76.3,10.6,30.02,West,275,3.2,6.9,8,0.00,CLR,,0.00,WeatherDisplay:10.37,2013-07-21 13:13:00,
2013-07-21 09:14:00,76.3,10.6,30.02,West,275,4.1,5.8,8,0.00,CLR,,0.00,WeatherDisplay:10.37,2013-07-21 13:14:00,
2013-07-21 09:15:00,76.7,10.9,30.02,West,275,1.4,5.8,8,0.00,CLR,,0.00,WeatherDisplay:10.37,2013-07-21 13:15:00,
2013-07-21 09:16:00,76.7,10.9,30.02,West,275,0.0,0.0,8,0.00,CLR,,0.00,WeatherDisplay:10.37,2013-07-21 13:16:00,
2013-07-21 09:18:00,76.8,13.6,30.02,West,275,0.0,0.0,9,0.00,CLR,,0.00,WeatherDisplay:10.37,2013-07-21 13:18:00,
2013-07-21 09:19:00,76.5,10.7,30.02,West,275,0.0,0.0,8,0.00,CLR,,0.00,WeatherDisplay:10.37,2013-07-21 13:19:00,
2013-07-21 09:20:00,76.4,10.7,30.02,West,275,0.0,0.0,8,0.00,CLR,,0.00,WeatherDisplay:10.37,2013-07-21 13:20:00,
2013-07-21 09:22:00,77.4,11.4,30.02,West,275,0.0,0.0,8,0.00,CLR,,0.00,WeatherDisplay:10.37,2013-07-21 13:22:00,
2013-07-21 09:23:00,76.4,7.7,30.02,West,275,0.0,0.0,7,0.00,CLR,,0.00,WeatherDisplay:10.37,2013-07-21 13:23:00,
2013-07-21 09:24:00,76.3,10.6,30.02,West,275,0.0,0.0,8,0.00,CLR,,0.00,WeatherDisplay:10.37,2013-07-21 13:24:00,
2013-07-21 09:25:00,76.4,13.3,30.02,West,275,0.0,0.0,9,0.00,CLR,,0.00,WeatherDisplay:10.37,2013-07-21 13:25:00,
2013-07-21 09:27:00,76.6,7.8,30.02,West,275,0.0,0.0,7,0.00,CLR,,0.00,WeatherDisplay:10.37,2013-07-21 13:27:00,
2013-07-21 09:29:00,76.8,8.0,30.02,West,275,0.0,0.0,7,0.00,CLR,,0.00,WeatherDisplay:10.37,2013-07-21 13:29:00,
2013-07-21 09:30:00,78.0,5.5,30.02,West,275,0.0,0.0,6,0.00,CLR,,0.00,WeatherDisplay:10.37,2013-07-21 13:30:00,
2013-07-21 09:32:00,78.3,5.7,30.02,West,275,0.0,0.0,6,0.00,CLR,,0.00,WeatherDisplay:10.37,2013-07-21 13:32:00,
2013-07-21 09:34:00,78.1,1.6,30.02,North,353,1.4,3.5,5,0.00,CLR,,0.00,WeatherDisplay:10.37,2013-07-21 13:34:00,
2013-07-21 09:35:00,77.4,1.1,30.02,North,353,1.4,4.6,5,0.00,CLR,,0.00,WeatherDisplay:10.37,2013-07-21 13:35:00,
2013-07-21 09:38:00,78.5,5.8,30.02,North,353,0.0,0.0,6,0.00,CLR,,0.00,WeatherDisplay:10.37,2013-07-21 13:38:00,
2013-07-21 09:39:00,78.9,2.1,30.02,North,353,0.0,0.0,5,0.00,CLR,,0.00,WeatherDisplay:10.37,2013-07-21 13:39:00,
2013-07-21 09:40:00,78.3,1.7,30.02,NNW,329,0.7,5.2,5,0.00,CLR,,0.00,WeatherDisplay:10.37,2013-07-21 13:40:00,
2013-07-21 09:44:00,79.3,2.4,30.02,West,267,0.0,0.0,5,0.00,CLR,,0.00,WeatherDisplay:10.37,2013-07-21 13:44:00,
2013-07-21 09:45:00,77.7,-3.4,30.02,West,267,0.0,0.0,4,0.00,CLR,,0.00,WeatherDisplay:10.37,2013-07-21 13:45:00,
2013-07-21 09:46:00,79.0,-2.5,30.02,West,267,0.0,0.0,4,0.00,CLR,,0.00,WeatherDisplay:10.37,2013-07-21 13:46:00,
2013-07-21 09:49:00,78.4,1.8,30.02,West,272,0.2,3.5,5,0.00,CLR,,0.00,WeatherDisplay:10.37,2013-07-21 13:49:00,
2013-07-21 09:50:00,79.7,2.7,30.02,WNW,284,3.3,6.9,5,0.00,CLR,,0.00,WeatherDisplay:10.37,2013-07-21 13:50:00,
2013-07-21 09:51:00,79.0,2.2,30.02,West,281,2.7,5.8,5,0.00,CLR,,0.00,WeatherDisplay:10.37,2013-07-21 13:51:00,
2013-07-21 09:54:00,78.3,1.7,30.03,NNW,344,0.0,0.0,5,0.00,CLR,,0.00,WeatherDisplay:10.37,2013-07-21 13:54:00,
2013-07-21 09:55:00,78.3,1.7,30.02,NNW,344,0.0,0.0,5,0.00,CLR,,0.00,WeatherDisplay:10.37,2013-07-21 13:55:00,
2013-07-21 09:56:00,78.9,2.1,30.02,NW,313,1.0,5.2,5,0.00,CLR,,0.00,WeatherDisplay:10.37,2013-07-21 13:56:00,
2013-07-21 09:59:00,79.2,2.4,30.03,NW,312,0.0,0.0,5,0.00,CLR,,0.00,WeatherDisplay:10.37,2013-07-21 13:59:00,
2013-07-21 10:00:00,77.8,1.4,30.03,NW,312,0.0,0.0,5,0.00,CLR,,0.00,WeatherDisplay:10.37,2013-07-21 14:00:00,
2013-07-21 10:01:00,79.7,2.7,30.03,NW,312,0.0,0.0,5,0.00,CLR,,0.00,WeatherDisplay:10.37,2013-07-21 14:01:00,
2013-07-21 10:02:00,77.8,1.4,30.03,NW,312,0.0,0.0,5,0.00,CLR,,0.00,WeatherDisplay:10.37,2013-07-21 14:02:00,
2013-07-21 10:05:00,78.7,2.0,30.03,North,3,0.0,3.5,5,0.00,CLR,,0.00,WeatherDisplay:10.37,2013-07-21 14:05:00,
2013-07-21 10:06:00,78.9,2.1,30.03,North,3,0.0,0.0,5,0.00,CLR,,0.00,WeatherDisplay:10.37,2013-07-21 14:06:00,
2013-07-21 10:07:00,79.8,2.8,30.02,North,3,0.0,0.0,5,0.00,CLR,,0.00,WeatherDisplay:10.37,2013-07-21 14:07:00,
2013-07-21 10:10:00,79.4,-2.3,30.03,NW,305,0.1,2.3,4,0.00,CLR,,0.00,WeatherDisplay:10.37,2013-07-21 14:10:00,
2013-07-21 10:11:00,79.8,-2.0,30.03,SW,227,2.2,6.9,4,0.00,CLR,,0.00,WeatherDisplay:10.37,2013-07-21 14:11:00,
2013-07-21 10:12:00,80.2,-1.7,30.03,NW,325,2.0,4.6,4,0.00,CLR,,0.00,WeatherDisplay:10.37,2013-07-21 14:12:00,
2013-07-21 10:15:00,79.5,-2.2,30.03,NW,325,0.0,0.0,4,0.00,CLR,,0.00,WeatherDisplay:10.37,2013-07-21 14:15:00,
2013-07-21 10:16:00,80.9,-1.2,30.03,NW,325,0.0,0.0,4,0.00,CLR,,0.00,WeatherDisplay:10.37,2013-07-21 14:16:00,
2013-07-21 10:17:00,80.1,-1.8,30.02,NW,325,0.0,0.0,4,0.00,CLR,,0.00,WeatherDisplay:10.37,2013-07-21 14:17:00,
2013-07-21 10:20:00,80.0,-1.9,30.02,NW,312,2.5,5.8,4,0.00,CLR,,0.00,WeatherDisplay:10.37,2013-07-21 14:20:00,
2013-07-21 10:21:00,80.3,-1.6,30.02,NW,312,0.0,4.6,4,0.00,CLR,,0.00,WeatherDisplay:10.37,2013-07-21 14:21:00,
2013-07-21 10:22:00,80.4,-1.6,30.02,NW,312,0.0,0.0,4,0.00,CLR,,0.00,WeatherDisplay:10.37,2013-07-21 14:22:00,
2013-07-21 10:23:00,81.4,-0.9,30.02,NW,312,0.0,0.0,4,0.00,CLR,,0.00,WeatherDisplay:10.37,2013-07-21 14:23:00,
2013-07-21 10:25:00,82.2,-6.4,30.03,WNW,289,2.0,0.0,3,0.00,CLR,,0.00,WeatherDisplay:10.37,2013-07-21 14:25:00,
2013-07-21 10:26:00,82.1,-6.4,30.02,WNW,289,1.3,4.6,3,0.00,CLR,,0.00,WeatherDisplay:10.37,2013-07-21 14:26:00,
2013-07-21 10:27:00,82.2,-6.4,30.02,WNW,289,0.0,0.0,3,0.00,CLR,,0.00,WeatherDisplay:10.37,2013-07-21 14:27:00,
2013-07-21 10:28:00,81.7,-6.7,30.02,WNW,289,0.0,0.0,3,0.00,CLR,,0.00,WeatherDisplay:10.37,2013-07-21 14:28:00,
2013-07-21 10:30:00,82.6,-6.1,30.02,WNW,289,0.0,0.0,3,0.00,CLR,,0.00,WeatherDisplay:10.37,2013-07-21 14:30:00,
2013-07-21 10:31:00,82.9,-5.9,30.02,WNW,289,0.0,0.0,3,0.00,CLR,,0.00,WeatherDisplay:10.37,2013-07-21 14:31:00,
2013-07-21 10:32:00,82.4,-6.2,30.02,WNW,289,0.0,0.0,3,0.00,CLR,,0.00,WeatherDisplay:10.37,2013-07-21 14:32:00,
2013-07-21 10:35:00,83.5,-5.5,30.02,WNW,289,0.0,0.0,3,0.00,CLR,,0.00,WeatherDisplay:10.37,2013-07-21 14:35:00,
2013-07-21 10:36:00,81.8,-6.6,30.02,WNW,289,0.0,0.0,3,0.00,CLR,,0.00,WeatherDisplay:10.37,2013-07-21 14:36:00,
2013-07-21 10:37:00,82.1,-6.4,30.02,WNW,289,0.0,0.0,3,0.00,CLR,,0.00,WeatherDisplay:10.37,2013-07-21 14:37:00,
2013-07-21 10:38:00,81.7,-6.7,30.02,WNW,289,0.0,0.0,3,0.00,CLR,,0.00,WeatherDisplay:10.37,2013-07-21 14:38:00,
2013-07-21 10:40:00,82.4,-6.2,30.03,WNW,289,0.0,0.0,3,0.00,CLR,,0.00,WeatherDisplay:10.37,2013-07-21 14:40:00,
2013-07-21 10:41:00,82.5,-6.2,30.03,WNW,289,0.0,0.0,3,0.00,CLR,,0.00,WeatherDisplay:10.37,2013-07-21 14:41:00,
2013-07-21 10:42:00,84.1,-5.1,30.03,NNE,18,0.0,0.0,3,0.00,CLR,,0.00,WeatherDisplay:10.37,2013-07-21 14:42:00,
2013-07-21 10:43:00,84.3,-13.2,30.03,NNE,18,0.0,0.0,2,0.00,CLR,,0.00,WeatherDisplay:10.37,2013-07-21 14:43:00,
2013-07-21 10:46:00,83.4,-5.6,30.03,NNE,18,0.0,0.0,3,0.00,CLR,,0.00,WeatherDisplay:10.37,2013-07-21 14:46:00,
2013-07-21 10:47:00,83.2,-5.7,30.02,NNE,18,0.0,0.0,3,0.00,CLR,,0.00,WeatherDisplay:10.37,2013-07-21 14:47:00,
2013-07-21 10:48:00,83.2,-5.7,30.02,NNE,18,0.0,0.0,3,0.00,CLR,,0.00,WeatherDisplay:10.37,2013-07-21 14:48:00,
2013-07-21 10:51:00,84.0,-13.4,30.03,North,360,2.3,4.6,2,0.00,CLR,,0.00,WeatherDisplay:10.37,2013-07-21 14:51:00,
2013-07-21 10:52:00,84.7,-4.7,30.02,North,360,0.0,0.0,3,0.00,CLR,,0.00,WeatherDisplay:10.37,2013-07-21 14:52:00,
2013-07-21 10:53:00,84.7,-4.7,30.02,North,360,0.0,0.0,3,0.00,CLR,,0.00,WeatherDisplay:10.37,2013-07-21 14:53:00,
2013-07-21 10:56:00,84.3,-5.0,30.02,North,360,0.0,0.0,3,0.00,CLR,,0.00,WeatherDisplay:10.37,2013-07-21 14:56:00,
2013-07-21 10:57:00,84.3,-13.2,30.02,North,360,0.0,0.0,2,0.00,CLR,,0.00,WeatherDisplay:10.37,2013-07-21 14:57:00,
2013-07-21 10:58:00,85.2,-4.4,30.03,North,360,0.0,0.0,3,0.00,CLR,,0.00,WeatherDisplay:10.37,2013-07-21 14:58:00,
2013-07-21 11:02:00,82.4,-6.2,30.03,WNW,291,0.0,3.5,3,0.00,CLR,,0.00,WeatherDisplay:10.37,2013-07-21 15:02:00,
2013-07-21 11:03:00,84.0,-5.2,30.03,WNW,291,0.0,0.0,3,0.00,CLR,,0.00,WeatherDisplay:10.37,2013-07-21 15:03:00,
2013-07-21 11:07:00,84.9,-4.6,30.03,WNW,291,0.0,0.0,3,0.00,CLR,,0.00,WeatherDisplay:10.37,2013-07-21 15:07:00,
2013-07-21 11:08:00,84.7,-13.0,30.03,West,274,0.6,3.2,2,0.00,CLR,,0.00,WeatherDisplay:10.37,2013-07-21 15:08:00,
2013-07-21 11:09:00,84.3,-13.2,30.03,West,260,3.6,4.6,2,0.00,CLR,,0.00,WeatherDisplay:10.37,2013-07-21 15:09:00,
2013-07-21 11:12:00,84.0,-13.4,30.03,West,265,2.9,5.3,2,0.00,CLR,,0.00,WeatherDisplay:10.37,2013-07-21 15:12:00,
2013-07-21 11:13:00,84.6,-4.8,30.03,West,274,2.6,5.8,3,0.00,CLR,,0.00,WeatherDisplay:10.37,2013-07-21 15:13:00,
2013-07-21 11:14:00,83.9,-5.2,30.03,West,274,0.0,3.5,3,0.00,CLR,,0.00,WeatherDisplay:10.37,2013-07-21 15:14:00,
2013-07-21 11:17:00,85.0,-12.8,30.03,West,274,0.0,0.0,2,0.00,CLR,,0.00,WeatherDisplay:10.37,2013-07-21 15:17:00,
2013-07-21 11:18:00,83.9,-13.5,30.03,West,274,0.0,0.0,2,0.00,CLR,,0.00,WeatherDisplay:10.37,2013-07-21 15:18:00,
2013-07-21 11:19:00,84.2,-13.3,30.03,West,274,0.0,0.0,2,0.00,CLR,,0.00,WeatherDisplay:10.37,2013-07-21 15:19:00,
2013-07-21 11:22:00,86.8,-11.6,30.03,West,274,0.0,0.0,2,0.00,CLR,,0.00,WeatherDisplay:10.37,2013-07-21 15:22:00,
2013-07-21 11:23:00,87.6,-11.1,30.03,West,274,0.0,0.0,2,0.00,CLR,,0.00,WeatherDisplay:10.37,2013-07-21 15:23:00,
2013-07-21 11:24:00,87.6,-11.1,30.03,West,274,0.0,0.0,2,0.00,CLR,,0.00,WeatherDisplay:10.37,2013-07-21 15:24:00,
2013-07-21 11:27:00,86.6,-3.4,30.03,West,274,0.0,0.0,3,0.00,CLR,,0.00,WeatherDisplay:10.37,2013-07-21 15:27:00,
2013-07-21 11:28:00,87.3,-11.3,30.03,West,274,0.0,0.0,2,0.00,CLR,,0.00,WeatherDisplay:10.37,2013-07-21 15:28:00,
2013-07-21 11:29:00,87.0,-11.5,30.03,East,100,0.8,3.0,2,0.00,CLR,,0.00,WeatherDisplay:10.37,2013-07-21 15:29:00,
2013-07-21 11:30:00,87.4,-11.2,30.03,ENE,65,1.5,4.6,2,0.00,CLR,,0.00,WeatherDisplay:10.37,2013-07-21 15:30:00,
2013-07-21 11:32:00,88.1,-10.8,30.03,ENE,65,0.0,0.0,2,0.00,CLR,,0.00,WeatherDisplay:10.37,2013-07-21 15:32:00,
2013-07-21 11:33:00,88.3,-10.7,30.02,ENE,65,0.0,0.0,2,0.00,CLR,,0.00,WeatherDisplay:10.37,2013-07-21 15:33:00,
2013-07-21 11:34:00,88.6,-10.5,30.02,ENE,65,0.0,0.0,2,0.00,CLR,,0.00,WeatherDisplay:10.37,2013-07-21 15:34:00,
2013-07-21 11:35:00,88.2,-10.7,30.03,ENE,65,0.0,0.0,2,0.00,CLR,,0.00,WeatherDisplay:10.37,2013-07-21 15:35:00,
2013-07-21 11:37:00,88.6,-10.5,30.03,SSE,147,2.1,5.8,2,0.00,CLR,,0.00,WeatherDisplay:10.37,2013-07-21 15:37:00,
2013-07-21 11:39:00,89.4,-10.0,30.02,SSE,147,0.0,0.0,2,0.00,CLR,,0.00,WeatherDisplay:10.37,2013-07-21 15:39:00,
2013-07-21 11:40:00,90.3,-9.4,30.03,SSE,147,0.0,0.0,2,0.00,CLR,,0.00,WeatherDisplay:10.37,2013-07-21 15:40:00,
2013-07-21 11:43:00,91.1,-8.9,30.03,SSE,147,0.0,0.0,2,0.00,CLR,,0.00,WeatherDisplay:10.37,2013-07-21 15:43:00,
2013-07-21 11:44:00,91.6,-8.6,30.03,SSE,147,0.0,0.0,2,0.00,CLR,,0.00,WeatherDisplay:10.37,2013-07-21 15:44:00,
2013-07-21 11:45:00,91.8,-8.4,30.03,SSE,147,0.0,0.0,2,0.00,CLR,,0.00,WeatherDisplay:10.37,2013-07-21 15:45:00,
2013-07-21 11:48:00,90.5,-9.3,30.03,WSW,244,0.1,4.2,2,0.00,CLR,,0.00,WeatherDisplay:10.37,2013-07-21 15:48:00,
2013-07-21 11:49:00,89.8,-9.7,30.03,WSW,247,0.0,4.6,2,0.00,CLR,,0.00,WeatherDisplay:10.37,2013-07-21 15:49:00,
2013-07-21 11:50:00,89.7,-9.8,30.03,WSW,247,0.0,0.0,2,0.00,CLR,,0.00,WeatherDisplay:10.37,2013-07-21 15:50:00,
2013-07-21 11:53:00,89.0,-10.2,30.03,WSW,247,0.0,0.0,2,0.00,CLR,,0.00,WeatherDisplay:10.37,2013-07-21 15:53:00,
2013-07-21 11:55:00,88.9,-10.3,30.02,WSW,247,0.0,0.0,2,0.00,CLR,,0.00,WeatherDisplay:10.37,2013-07-21 15:55:00,
2013-07-21 11:58:00,90.9,-9.0,30.03,SE,126,0.0,0.0,2,0.00,CLR,,0.00,WeatherDisplay:10.37,2013-07-21 15:58:00,
2013-07-21 12:00:00,91.7,-8.5,30.02,SE,126,0.0,0.0,2,0.00,CLR,,0.00,WeatherDisplay:10.37,2013-07-21 16:00:00,
2013-07-21 12:01:00,92.2,-8.2,30.02,SE,126,0.0,0.0,2,0.00,CLR,,0.00,WeatherDisplay:10.37,2013-07-21 16:01:00,
2013-07-21 12:03:00,93.3,-7.5,30.02,SE,126,0.0,0.0,2,0.00,CLR,,0.00,WeatherDisplay:10.37,2013-07-21 16:03:00,
2013-07-21 12:05:00,93.7,-7.2,30.02,SW,223,4.3,4.6,2,0.00,CLR,,0.00,WeatherDisplay:10.37,2013-07-21 16:05:00,
2013-07-21 12:06:00,92.9,-7.7,30.02,SE,141,2.8,5.8,2,0.00,CLR,,0.00,WeatherDisplay:10.37,2013-07-21 16:06:00,
2013-07-21 12:08:00,91.8,-8.4,30.02,East,97,2.1,8.1,2,0.00,CLR,,0.00,WeatherDisplay:10.37,2013-07-21 16:08:00,
2013-07-21 12:10:00,91.6,-8.6,30.02,East,79,0.0,2.3,2,0.00,CLR,,0.00,WeatherDisplay:10.37,2013-07-21 16:10:00,
2013-07-21 12:11:00,91.9,-8.4,30.02,East,79,0.0,0.0,2,0.00,CLR,,0.00,WeatherDisplay:10.37,2013-07-21 16:11:00,
2013-07-21 12:13:00,91.7,-8.5,30.02,SE,131,1.5,6.9,2,0.00,CLR,,0.00,WeatherDisplay:10.37,2013-07-21 16:13:00,
2013-07-21 12:15:00,92.3,-8.1,30.02,SE,131,0.0,0.0,2,0.00,CLR,,0.00,WeatherDisplay:10.37,2013-07-21 16:15:00,
2013-07-21 12:16:00,92.1,-8.2,30.02,SE,131,0.0,0.0,2,0.00,CLR,,0.00,WeatherDisplay:10.37,2013-07-21 16:16:00,
2013-07-21 12:17:00,92.1,-8.2,30.02,SE,131,0.0,0.0,2,0.00,CLR,,0.00,WeatherDisplay:10.37,2013-07-21 16:17:00,
2013-07-21 12:18:00,92.5,-8.0,30.02,ESE,113,1.0,5.8,2,0.00,CLR,,0.00,WeatherDisplay:10.37,2013-07-21 16:18:00,
2013-07-21 12:21:00,91.3,-8.8,30.02,SSE,151,1.0,4.7,2,0.00,CLR,,0.00,WeatherDisplay:10.37,2013-07-21 16:21:00,
2013-07-21 12:22:00,91.3,-8.8,30.02,SE,140,3.1,4.7,2,0.00,CLR,,0.00,WeatherDisplay:10.37,2013-07-21 16:22:00,
2013-07-21 12:23:00,92.2,-8.2,30.02,SE,143,1.7,6.9,2,0.00,CLR,,0.00,WeatherDisplay:10.37,2013-07-21 16:23:00,
2013-07-21 12:26:00,92.3,-8.1,30.02,SSE,165,4.1,6.9,2,0.00,CLR,,0.00,WeatherDisplay:10.37,2013-07-21 16:26:00,
2013-07-21 12:27:00,92.3,-8.1,30.02,East,89,3.1,6.9,2,0.00,CLR,,0.00,WeatherDisplay:10.37,2013-07-21 16:27:00,
2013-07-21 12:28:00,92.9,-7.7,30.02,East,89,0.0,0.0,2,0.00,CLR,,0.00,WeatherDisplay:10.37,2013-07-21 16:28:00,
2013-07-21 12:31:00,93.3,-7.5,30.02,East,89,0.0,0.0,2,0.00,CLR,,0.00,WeatherDisplay:10.37,2013-07-21 16:31:00,
2013-07-21 12:33:00,92.9,-7.7,30.02,South,185,1.2,5.8,2,0.00,CLR,,0.00,WeatherDisplay:10.37,2013-07-21 16:33:00,
2013-07-21 12:34:00,93.7,-7.2,30.01,South,185,0.0,3.5,2,0.00,CLR,,0.00,WeatherDisplay:10.37,2013-07-21 16:34:00,
2013-07-21 12:36:00,94.3,-6.8,30.01,SSE,164,3.5,5.8,2,0.00,CLR,,0.00,WeatherDisplay:10.37,2013-07-21 16:36:00,
2013-07-21 12:37:00,94.4,-6.8,30.01,SSE,164,2.1,5.8,2,0.00,CLR,,0.00,WeatherDisplay:10.37,2013-07-21 16:37:00,
2013-07-21 12:38:00,94.2,-6.9,30.01,SSE,164,0.0,0.0,2,0.00,CLR,,0.00,WeatherDisplay:10.37,2013-07-21 16:38:00,
2013-07-21 12:39:00,93.3,-7.5,30.02,SSE,164,0.0,0.0,2,0.00,CLR,,0.00,WeatherDisplay:10.37,2013-07-21 16:39:00,
2013-07-21 12:42:00,91.6,-8.6,30.01,North,360,0.0,2.3,2,0.00,CLR,,0.00,WeatherDisplay:10.37,2013-07-21 16:42:00,
2013-07-21 12:43:00,91.9,-8.4,30.01,North,360,0.0,0.0,2,0.00,CLR,,0.00,WeatherDisplay:10.37,2013-07-21 16:43:00,
2013-07-21 12:44:00,90.3,-9.4,30.01,East,92,3.6,5.8,2,0.00,CLR,,0.00,WeatherDisplay:10.37,2013-07-21 16:44:00,
2013-07-21 12:47:00,91.1,-8.9,30.01,East,96,0.0,0.0,2,0.00,CLR,,0.00,WeatherDisplay:10.37,2013-07-21 16:47:00,
2013-07-21 12:48:00,91.3,-8.8,30.01,East,96,0.0,0.0,2,0.00,CLR,,0.00,WeatherDisplay:10.37,2013-07-21 16:48:00,
2013-07-21 12:49:00,90.9,-9.0,30.00,East,96,0.0,0.0,2,0.00,CLR,,0.00,WeatherDisplay:10.37,2013-07-21 16:49:00,
2013-07-21 12:52:00,92.0,-8.3,30.00,ESE,113,3.0,3.5,2,0.00,CLR,,0.00,WeatherDisplay:10.37,2013-07-21 16:52:00,
2013-07-21 12:53:00,92.9,-7.7,30.00,ESE,113,0.0,0.0,2,0.00,CLR,,0.00,WeatherDisplay:10.37,2013-07-21 16:53:00,
2013-07-21 12:54:00,93.1,-7.6,30.00,ESE,113,0.0,0.0,2,0.00,CLR,,0.00,WeatherDisplay:10.37,2013-07-21 16:54:00,
2013-07-21 12:57:00,94.2,-6.9,30.00,ESE,113,0.0,0.0,2,0.00,CLR,,0.00,WeatherDisplay:10.37,2013-07-21 16:57:00,
2013-07-21 12:59:00,94.7,-6.6,30.00,ESE,113,0.0,0.0,2,0.00,CLR,,0.00,WeatherDisplay:10.37,2013-07-21 16:59:00,
2013-07-21 13:02:00,94.1,-7.0,30.00,South,182,1.0,4.6,2,0.00,CLR,,0.00,WeatherDisplay:10.37,2013-07-21 17:02:00,
2013-07-21 13:03:00,94.2,-6.9,30.00,South,182,0.0,0.0,2,0.00,CLR,,0.00,WeatherDisplay:10.37,2013-07-21 17:03:00,
2013-07-21 13:04:00,94.1,-7.0,30.00,South,182,0.0,0.0,2,0.00,CLR,,0.00,WeatherDisplay:10.37,2013-07-21 17:04:00,
2013-07-21 13:08:00,92.2,-8.2,30.00,WSW,254,0.0,0.0,2,0.00,CLR,,0.00,WeatherDisplay:10.37,2013-07-21 17:08:00,
2013-07-21 13:09:00,91.4,-8.7,30.00,East,92,0.5,4.4,2,0.00,CLR,,0.00,WeatherDisplay:10.37,2013-07-21 17:09:00,
2013-07-21 13:10:00,91.2,-8.8,30.00,ESE,119,0.7,5.0,2,0.00,CLR,,0.00,WeatherDisplay:10.37,2013-07-21 17:10:00,
2013-07-21 13:13:00,90.9,-9.0,30.00,SE,141,1.6,6.8,2,0.00,CLR,,0.00,WeatherDisplay:10.37,2013-07-21 17:13:00,
2013-07-21 13:14:00,90.9,-9.0,30.00,SE,128,5.5,6.9,2,0.00,CLR,,0.00,WeatherDisplay:10.37,2013-07-21 17:14:00,
2013-07-21 13:15:00,90.7,-9.1,30.00,SSE,160,0.8,3.5,2,0.00,CLR,,0.00,WeatherDisplay:10.37,2013-07-21 17:15:00,
2013-07-21 13:18:00,91.2,-8.8,30.00,SSE,160,0.0,0.0,2,0.00,CLR,,0.00,WeatherDisplay:10.37,2013-07-21 17:18:00,
2013-07-21 13:19:00,91.2,-8.8,30.00,SSE,151,2.8,4.6,2,0.00,CLR,,0.00,WeatherDisplay:10.37,2013-07-21 17:19:00,
2013-07-21 13:20:00,92.0,-8.3,30.00,SSE,160,0.0,0.0,2,0.00,CLR,,0.00,WeatherDisplay:10.37,2013-07-21 17:20:00,
2013-07-21 13:23:00,92.4,-8.1,30.00,SW,215,0.0,6.9,2,0.00,CLR,,0.00,WeatherDisplay:10.37,2013-07-21 17:23:00,
2013-07-21 13:24:00,92.9,-7.7,30.00,SW,215,0.0,0.0,2,0.00,CLR,,0.00,WeatherDisplay:10.37,2013-07-21 17:24:00,
2013-07-21 13:26:00,92.3,-8.1,30.00,SE,126,2.0,6.7,2,0.00,CLR,,0.00,WeatherDisplay:10.37,2013-07-21 17:26:00,
2013-07-21 13:28:00,93.0,-7.7,30.00,SE,143,2.8,9.2,2,0.00,CLR,,0.00,WeatherDisplay:10.37,2013-07-21 17:28:00,
2013-07-21 13:29:00,92.8,-7.8,29.99,WNW,282,0.7,5.9,2,0.00,CLR,,0.00,WeatherDisplay:10.37,2013-07-21 17:29:00,
2013-07-21 13:30:00,92.7,-7.9,29.99,WSW,250,4.4,6.9,2,0.00,CLR,,0.00,WeatherDisplay:10.37,2013-07-21 17:30:00,
2013-07-21 13:31:00,92.8,-7.8,29.99,SSW,198,3.0,9.2,2,0.00,CLR,,0.00,WeatherDisplay:10.37,2013-07-21 17:31:00,
2013-07-21 13:33:00,93.0,-7.7,29.99,SSE,155,5.0,8.1,2,0.00,CLR,,0.00,WeatherDisplay:10.37,2013-07-21 17:33:00,
2013-07-21 13:34:00,93.0,-7.7,29.99,East,92,2.8,8.1,2,0.00,CLR,,0.00,WeatherDisplay:10.37,2013-07-21 17:34:00,
2013-07-21 13:35:00,92.4,-8.1,29.99,East,92,2.3,8.1,2,0.00,CLR,,0.00,WeatherDisplay:10.37,2013-07-21 17:35:00,
2013-07-21 13:36:00,92.5,-8.0,29.99,East,92,0.4,5.8,2,0.00,CLR,,0.00,WeatherDisplay:10.37,2013-07-21 17:36:00,
2013-07-21 13:39:00,93.2,-7.5,29.99,NW,313,5.8,8.3,2,0.00,CLR,,0.00,WeatherDisplay:10.37,2013-07-21 17:39:00,
2013-07-21 13:40:00,91.1,-8.9,30.00,WNW,302,6.2,10.4,2,0.00,CLR,,0.00,WeatherDisplay:10.37,2013-07-21 17:40:00,
2013-07-21 13:41:00,90.0,-9.6,30.00,North,353,7.0,8.1,2,0.00,CLR,,0.00,WeatherDisplay:10.37,2013-07-21 17:41:00,
2013-07-21 13:44:00,81.5,-15.0,30.01,North,360,7.0,10.4,2,0.00,CLR,,0.00,WeatherDisplay:10.37,2013-07-21 17:44:00,
2013-07-21 13:45:00,78.9,-8.6,30.01,North,360,8.3,10.4,3,0.00,CLR,,0.00,WeatherDisplay:10.37,2013-07-21 17:45:00,
2013-07-21 13:46:00,78.1,-9.1,30.01,NE,38,6.4,12.7,3,0.00,CLR,,0.00,WeatherDisplay:10.37,2013-07-21 17:46:00,
2013-07-21 13:49:00,76.9,0.7,30.02,NNE,14,4.7,10.4,5,0.01,RA,,0.01,WeatherDisplay:10.37,2013-07-21 17:49:00,
2013-07-21 13:50:00,76.5,4.4,30.02,North,7,4.0,6.9,6,0.02,RA,,0.02,WeatherDisplay:10.37,2013-07-21 17:50:00,
2013-07-21 13:51:00,76.7,10.9,30.02,North,7,0.1,6.9,8,0.02,RA,,0.02,WeatherDisplay:10.37,2013-07-21 17:51:00,
2013-07-21 13:54:00,75.4,12.6,30.03,North,356,3.0,8.1,9,0.02,RA,,0.02,WeatherDisplay:10.37,2013-07-21 17:54:00,
2013-07-21 13:55:00,75.2,12.4,30.03,North,360,0.9,5.8,9,0.02,RA,,0.02,WeatherDisplay:10.37,2013-07-21 17:55:00,
2013-07-21 13:56:00,75.1,20.9,30.03,North,360,2.5,5.8,13,0.02,RA,,0.02,WeatherDisplay:10.37,2013-07-21 17:56:00,
2013-07-21 13:59:00,74.2,20.1,30.03,NNE,28,5.0,15.0,13,0.02,RA,,0.02,WeatherDisplay:10.37,2013-07-21 17:59:00,
2013-07-21 14:00:00,74.2,20.1,30.03,North,359,4.1,15.0,13,0.02,RA,,0.02,WeatherDisplay:10.37,2013-07-21 18:00:00,
2013-07-21 14:01:00,74.1,25.0,30.04,NNE,18,5.4,9.2,16,0.02,,,0.02,WeatherDisplay:10.37,2013-07-21 18:01:00,
2013-07-21 14:05:00,74.1,27.9,30.04,ENE,65,1.9,10.3,18,0.02,CLR,,0.02,WeatherDisplay:10.37,2013-07-21 18:05:00,
2013-07-21 14:06:00,74.0,27.8,30.04,NE,56,1.9,4.6,18,0.02,CLR,,0.02,WeatherDisplay:10.37,2013-07-21 18:06:00,
2013-07-21 14:10:00,74.0,26.4,30.04,North,3,3.0,12.7,17,0.02,CLR,,0.02,WeatherDisplay:10.37,2013-07-21 18:10:00,
2013-07-21 14:11:00,73.8,23.2,30.04,North,7,5.5,12.7,15,0.02,CLR,,0.02,WeatherDisplay:10.37,2013-07-21 18:11:00,
2013-07-21 14:15:00,73.7,26.1,30.04,North,1,3.0,8.1,17,0.02,CLR,,0.02,WeatherDisplay:10.37,2013-07-21 18:15:00,
2013-07-21 14:16:00,73.5,23.0,30.04,North,350,7.7,7.7,15,0.02,CLR,,0.02,WeatherDisplay:10.37,2013-07-21 18:16:00,
2013-07-21 14:20:00,74.2,27.9,30.04,North,352,0.3,6.9,18,0.02,CLR,,0.02,WeatherDisplay:10.37,2013-07-21 18:20:00,
2013-07-21 14:21:00,74.4,18.4,30.03,North,360,4.5,12.7,12,0.02,CLR,,0.02,WeatherDisplay:10.37,2013-07-21 18:21:00,
2013-07-21 14:25:00,75.9,7.3,30.03,North,4,1.7,5.8,7,0.02,CLR,,0.02,WeatherDisplay:10.37,2013-07-21 18:25:00,
2013-07-21 14:26:00,76.3,10.6,30.03,NNE,17,1.7,5.8,8,0.02,CLR,,0.02,WeatherDisplay:10.37,2013-07-21 18:26:00,
2013-07-21 14:30:00,76.8,0.7,30.01,NNW,342,3.9,6.9,5,0.02,CLR,,0.02,WeatherDisplay:10.37,2013-07-21 18:30:00,
2013-07-21 14:31:00,77.1,0.9,30.01,North,360,5.6,6.9,5,0.02,CLR,,0.02,WeatherDisplay:10.37,2013-07-21 18:31:00,
2013-07-21 14:32:00,76.7,-4.1,30.00,NNW,343,6.1,9.2,4,0.02,CLR,,0.02,WeatherDisplay:10.37,2013-07-21 18:32:00,
2013-07-21 14:36:00,77.0,0.8,30.00,North,360,0.0,5.8,5,0.02,CLR,,0.02,WeatherDisplay:10.37,2013-07-21 18:36:00,
2013-07-21 14:37:00,77.0,-3.9,29.99,NNE,13,2.4,4.6,4,0.02,CLR,,0.02,WeatherDisplay:10.37,2013-07-21 18:37:00,
2013-07-21 14:41:00,78.0,-3.2,29.99,NNW,330,3.7,10.4,4,0.02,CLR,,0.02,WeatherDisplay:10.37,2013-07-21 18:41:00,
2013-07-21 14:42:00,77.4,1.1,29.99,NNW,330,0.0,5.8,5,0.02,CLR,,0.02,WeatherDisplay:10.37,2013-07-21 18:42:00,
2013-07-21 14:46:00,77.1,4.8,30.00,NNW,329,7.1,11.5,6,0.02,CLR,,0.02,WeatherDisplay:10.37,2013-07-21 18:46:00,
2013-07-21 14:47:00,76.7,4.5,30.00,NNE,16,3.6,11.5,6,0.02,CLR,,0.02,WeatherDisplay:10.37,2013-07-21 18:47:00,
2013-07-21 14:51:00,76.9,4.7,30.00,NW,322,0.3,5.8,6,0.00,CLR,,0.02,WeatherDisplay:10.37,2013-07-21 18:51:00,
2013-07-21 14:52:00,76.4,4.3,30.00,NW,322,0.0,5.8,6,0.00,CLR,,0.02,WeatherDisplay:10.37,2013-07-21 18:52:00,
2013-07-21 14:53:00,76.9,4.7,30.00,NW,322,0.0,0.0,6,0.00,CLR,,0.02,WeatherDisplay:10.37,2013-07-21 18:53:00,
2013-07-21 14:57:00,77.9,1.4,30.01,NW,322,0.0,0.0,5,0.00,CLR,,0.02,WeatherDisplay:10.37,2013-07-21 18:57:00,
2013-07-21 14:58:00,78.1,1.6,30.01,NW,322,0.0,0.0,5,0.00,CLR,,0.02,WeatherDisplay:10.37,2013-07-21 18:58:00,
2013-07-21 15:02:00,79.0,-2.5,30.02,NW,322,0.0,0.0,4,0.00,CLR,,0.02,WeatherDisplay:10.37,2013-07-21 19:02:00,
2013-07-21 15:03:00,79.2,2.4,30.01,ENE,65,4.9,8.1,5,0.00,CLR,,0.02,WeatherDisplay:10.37,2013-07-21 19:03:00,
2013-07-21 15:07:00,79.1,-2.5,30.01,ENE,73,4.9,10.4,4,0.00,CLR,,0.02,WeatherDisplay:10.37,2013-07-21 19:07:00,
2013-07-21 15:08:00,79.8,-8.0,30.01,ESE,116,6.6,9.2,3,0.00,CLR,,0.02,WeatherDisplay:10.37,2013-07-21 19:08:00,
2013-07-21 15:09:00,80.2,-7.7,30.01,East,97,7.2,9.2,3,0.00,CLR,,0.02,WeatherDisplay:10.37,2013-07-21 19:09:00,
2013-07-21 15:12:00,80.4,-7.6,30.00,ESE,123,6.1,10.4,3,0.00,CLR,,0.02,WeatherDisplay:10.37,2013-07-21 19:12:00,
2013-07-21 15:13:00,80.9,-7.2,30.00,ESE,107,4.0,10.4,3,0.00,CLR,,0.02,WeatherDisplay:10.37,2013-07-21 19:13:00,
2013-07-21 15:14:00,81.4,-0.9,30.00,SSW,213,1.3,6.9,4,0.00,CLR,,0.02,WeatherDisplay:10.37,2013-07-21 19:14:00,
2013-07-21 15:17:00,81.3,-7.0,30.00,South,176,1.7,6.9,3,0.00,CLR,,0.02,WeatherDisplay:10.37,2013-07-21 19:17:00,
2013-07-21 15:18:00,82.2,-6.4,30.00,ESE,114,1.1,3.5,3,0.00,CLR,,0.02,WeatherDisplay:10.37,2013-07-21 19:18:00,
2013-07-21 15:19:00,81.9,-6.6,30.00,East,79,2.0,3.5,3,0.00,CLR,,0.02,WeatherDisplay:10.37,2013-07-21 19:19:00,
2013-07-21 15:22:00,79.9,-1.9,30.00,East,90,4.9,9.2,4,0.00,CLR,,0.02,WeatherDisplay:10.37,2013-07-21 19:22:00,
2013-07-21 15:24:00,79.5,-8.2,30.00,SE,134,6.3,9.3,3,0.00,CLR,,0.02,WeatherDisplay:10.37,2013-07-21 19:24:00,
2013-07-21 15:27:00,81.8,-6.6,30.00,ESE,103,2.4,8.1,3,0.00,CLR,,0.02,WeatherDisplay:10.37,2013-07-21 19:27:00,
2013-07-21 15:29:00,81.9,-6.6,30.00,ESE,107,2.1,6.9,3,0.00,CLR,,0.02,WeatherDisplay:10.37,2013-07-21 19:29:00,
2013-07-21 15:32:00,81.1,-7.1,30.00,East,99,2.8,5.2,3,0.00,CLR,,0.02,WeatherDisplay:10.37,2013-07-21 19:32:00,
2013-07-21 15:33:00,81.0,-7.2,29.99,SE,138,4.8,8.1,3,0.00,CLR,,0.02,WeatherDisplay:10.37,2013-07-21 19:33:00,
2013-07-21 15:34:00,82.2,-6.4,29.99,ESE,103,5.8,7.0,3,0.00,CLR,,0.02,WeatherDisplay:10.37,2013-07-21 19:34:00,
2013-07-21 15:38:00,83.3,-13.9,29.99,ESE,107,0.0,0.0,2,0.00,CLR,,0.02,WeatherDisplay:10.37,2013-07-21 19:38:00,
2013-07-21 15:39:00,82.2,-6.4,29.99,ENE,73,2.0,6.9,3,0.00,CLR,,0.02,WeatherDisplay:10.37,2013-07-21 19:39:00,
2013-07-21 15:40:00,82.0,-6.5,29.99,ENE,72,2.2,5.8,3,0.00,CLR,,0.02,WeatherDisplay:10.37,2013-07-21 19:40:00,
2013-07-21 15:43:00,80.3,-1.6,29.98,SSE,165,3.0,8.1,4,0.00,CLR,,0.02,WeatherDisplay:10.37,2013-07-21 19:43:00,
2013-07-21 15:45:00,80.5,-1.5,29.98,SSE,165,0.0,0.0,4,0.00,CLR,,0.02,WeatherDisplay:10.37,2013-07-21 19:45:00,
2013-07-21 15:46:00,81.8,-6.6,29.98,ESE,107,1.3,5.6,3,0.00,CLR,,0.02,WeatherDisplay:10.37,2013-07-21 19:46:00,
2013-07-21 15:48:00,81.9,-6.6,29.99,SE,136,4.8,9.2,3,0.00,CLR,,0.02,WeatherDisplay:10.37,2013-07-21 19:48:00,
2013-07-21 15:50:00,82.6,-6.1,29.99,East,99,4.2,6.9,3,0.00,CLR,,0.02,WeatherDisplay:10.37,2013-07-21 19:50:00,
2013-07-21 15:51:00,82.4,-14.4,29.99,East,80,4.3,6.9,2,0.00,CLR,,0.02,WeatherDisplay:10.37,2013-07-21 19:51:00,
2013-07-21 15:53:00,83.4,-5.6,29.99,SE,134,0.4,5.8,3,0.00,CLR,,0.02,WeatherDisplay:10.37,2013-07-21 19:53:00,
2013-07-21 15:54:00,81.4,-6.9,29.99,SE,134,0.0,3.5,3,0.00,CLR,,0.02,WeatherDisplay:10.37,2013-07-21 19:54:00,
2013-07-21 15:55:00,82.1,-6.4,29.99,SE,133,4.6,6.9,3,0.00,CLR,,0.02,WeatherDisplay:10.37,2013-07-21 19:55:00,
2013-07-21 15:56:00,81.5,-6.8,29.99,East,95,3.8,8.1,3,0.00,CLR,,0.02,WeatherDisplay:10.37,2013-07-21 19:56:00,
2013-07-21 15:59:00,79.8,-8.0,29.99,ESE,103,0.0,0.0,3,0.00,CLR,,0.02,WeatherDisplay:10.37,2013-07-21 19:59:00,
2013-07-21 16:00:00,81.6,-6.8,29.99,ESE,103,0.0,32.2,3,0.00,CLR,,0.02,WeatherDisplay:10.37,2013-07-21 20:00:00,
2013-07-21 16:01:00,80.4,-7.6,29.99,ESE,103,0.0,0.0,3,0.00,CLR,,0.02,WeatherDisplay:10.37,2013-07-21 20:01:00,
2013-07-21 16:04:00,81.8,-6.6,29.99,ESE,103,0.0,0.0,3,0.00,CLR,,0.02,WeatherDisplay:10.37,2013-07-21 20:04:00,
2013-07-21 16:05:00,81.0,-7.2,29.98,ESE,103,0.0,0.0,3,0.00,CLR,,0.02,WeatherDisplay:10.37,2013-07-21 20:05:00,
2013-07-21 16:06:00,79.9,-1.9,29.98,ESE,103,0.0,0.0,4,0.00,CLR,,0.02,WeatherDisplay:10.37,2013-07-21 20:06:00,
2013-07-21 16:09:00,80.1,-1.8,29.98,ESE,103,0.0,0.0,4,0.00,CLR,,0.02,WeatherDisplay:10.37,2013-07-21 20:09:00,
2013-07-21 16:10:00,80.7,-1.4,29.99,ESE,103,0.0,0.0,4,0.00,CLR,,0.02,WeatherDisplay:10.37,2013-07-21 20:10:00,
2013-07-21 16:11:00,81.1,-1.1,29.99,ESE,103,0.0,0.0,4,0.00,CLR,,0.02,WeatherDisplay:10.37,2013-07-21 20:11:00,
2013-07-21 16:14:00,80.6,-1.4,29.99,ESE,103,0.0,0.0,4,0.00,CLR,,0.02,WeatherDisplay:10.37,2013-07-21 20:14:00,
2013-07-21 16:15:00,80.4,-1.6,29.99,ESE,103,0.0,0.0,4,0.00,CLR,,0.02,WeatherDisplay:10.37,2013-07-21 20:15:00,
2013-07-21 16:16:00,80.2,-1.7,29.99,ESE,103,0.0,0.0,4,0.00,CLR,,0.02,WeatherDisplay:10.37,2013-07-21 20:16:00,
2013-07-21 16:17:00,80.0,-1.9,29.99,ESE,103,0.0,0.0,4,0.00,CLR,,0.02,WeatherDisplay:10.37,2013-07-21 20:17:00,
2013-07-21 16:19:00,80.3,-1.6,29.98,ESE,103,0.0,0.0,4,0.00,CLR,,0.02,WeatherDisplay:10.37,2013-07-21 20:19:00,
2013-07-21 16:20:00,81.1,-7.1,29.98,ESE,103,0.0,0.0,3,0.00,CLR,,0.02,WeatherDisplay:10.37,2013-07-21 20:20:00,
2013-07-21 16:22:00,79.8,-8.0,29.98,ESE,103,0.0,0.0,3,0.00,CLR,,0.02,WeatherDisplay:10.37,2013-07-21 20:22:00,
2013-07-21 16:24:00,81.1,-7.1,29.98,ESE,103,0.0,0.0,3,0.00,CLR,,0.02,WeatherDisplay:10.37,2013-07-21 20:24:00,
2013-07-21 16:25:00,81.1,-7.1,29.98,ESE,103,0.0,0.0,3,0.00,CLR,,0.02,WeatherDisplay:10.37,2013-07-21 20:25:00,
2013-07-21 16:27:00,81.4,-6.9,29.98,ESE,103,0.0,0.0,3,0.00,CLR,,0.02,WeatherDisplay:10.37,2013-07-21 20:27:00,
2013-07-21 16:29:00,80.3,-7.6,29.98,ESE,103,0.0,0.0,3,0.00,CLR,,0.02,WeatherDisplay:10.37,2013-07-21 20:29:00,
2013-07-21 16:30:00,80.3,-7.6,29.98,ESE,103,0.0,0.0,3,0.00,CLR,,0.02,WeatherDisplay:10.37,2013-07-21 20:30:00,
2013-07-21 16:31:00,81.1,-7.1,29.98,ESE,103,0.0,0.0,3,0.00,CLR,,0.02,WeatherDisplay:10.37,2013-07-21 20:31:00,
2013-07-21 16:32:00,80.4,-7.6,29.98,ESE,103,0.0,0.0,3,0.00,CLR,,0.02,WeatherDisplay:10.37,2013-07-21 20:32:00,
2013-07-21 16:34:00,80.4,-7.6,29.98,ESE,103,0.0,0.0,3,0.00,CLR,,0.02,WeatherDisplay:10.37,2013-07-21 20:34:00,
2013-07-21 16:36:00,80.9,-7.2,29.98,ESE,103,0.0,0.0,3,0.00,CLR,,0.02,WeatherDisplay:10.37,2013-07-21 20:36:00,
2013-07-21 16:37:00,80.3,-1.6,29.98,ESE,103,0.0,0.0,4,0.00,CLR,,0.02,WeatherDisplay:10.37,2013-07-21 20:37:00,
2013-07-21 16:39:00,80.3,-1.6,29.98,ESE,103,0.0,0.0,4,0.00,CLR,,0.02,WeatherDisplay:10.37,2013-07-21 20:39:00,
2013-07-21 16:41:00,80.4,-1.6,29.98,ESE,103,0.0,0.0,4,0.00,CLR,,0.02,WeatherDisplay:10.37,2013-07-21 20:41:00,
2013-07-21 16:42:00,80.4,-1.6,29.98,ESE,103,0.0,0.0,4,0.00,CLR,,0.02,WeatherDisplay:10.37,2013-07-21 20:42:00,
2013-07-21 16:43:00,80.4,-1.6,29.98,ESE,103,0.0,0.0,4,0.00,CLR,,0.02,WeatherDisplay:10.37,2013-07-21 20:43:00,
2013-07-21 16:45:00,80.0,-1.9,29.98,ESE,103,0.0,0.0,4,0.00,CLR,,0.02,WeatherDisplay:10.37,2013-07-21 20:45:00,
2013-07-21 16:46:00,78.8,-2.7,29.98,ESE,103,0.0,0.0,4,0.00,CLR,,0.02,WeatherDisplay:10.37,2013-07-21 20:46:00,
2013-07-21 16:47:00,78.8,-2.7,29.98,ESE,103,0.0,0.0,4,0.00,CLR,,0.02,WeatherDisplay:10.37,2013-07-21 20:47:00,
2013-07-21 16:48:00,79.1,-2.5,29.98,ESE,103,0.0,0.0,4,0.00,CLR,,0.02,WeatherDisplay:10.37,2013-07-21 20:48:00,
2013-07-21 16:50:00,78.3,1.7,29.98,ESE,103,0.0,0.0,5,0.00,CLR,,0.02,WeatherDisplay:10.37,2013-07-21 20:50:00,
2013-07-21 16:51:00,77.7,1.3,29.98,ESE,103,0.0,0.0,5,0.00,CLR,,0.02,WeatherDisplay:10.37,2013-07-21 20:51:00,
2013-07-21 16:52:00,78.2,1.6,29.98,ESE,103,0.0,0.0,5,0.00,CLR,,0.02,WeatherDisplay:10.37,2013-07-21 20:52:00,
2013-07-21 16:53:00,77.9,1.4,29.98,ESE,103,0.0,0.0,5,0.00,CLR,,0.02,WeatherDisplay:10.37,2013-07-21 20:53:00,
2013-07-21 16:55:00,77.1,0.9,29.98,ESE,103,0.0,0.0,5,0.00,CLR,,0.02,WeatherDisplay:10.37,2013-07-21 20:55:00,
2013-07-21 16:56:00,78.2,1.6,29.98,ESE,103,0.0,0.0,5,0.00,CLR,,0.02,WeatherDisplay:10.37,2013-07-21 20:56:00,
2013-07-21 16:57:00,78.0,5.5,29.98,ESE,103,0.0,0.0,6,0.00,CLR,,0.02,WeatherDisplay:10.37,2013-07-21 20:57:00,
2013-07-21 16:59:00,77.8,5.3,29.98,ESE,103,0.0,0.0,6,0.00,CLR,,0.02,WeatherDisplay:10.37,2013-07-21 20:59:00,
2013-07-21 17:01:00,77.1,4.8,29.98,ESE,103,0.0,0.0,6,0.00,CLR,,0.02,WeatherDisplay:10.37,2013-07-21 21:01:00,
2013-07-21 17:02:00,77.1,4.8,29.98,ESE,103,0.0,0.0,6,0.00,CLR,,0.02,WeatherDisplay:10.37,2013-07-21 21:02:00,
2013-07-21 17:03:00,77.1,4.8,29.98,ESE,103,0.0,0.0,6,0.00,CLR,,0.02,WeatherDisplay:10.37,2013-07-21 21:03:00,
2013-07-21 17:04:00,76.8,4.6,29.98,ESE,103,0.0,0.0,6,0.00,CLR,,0.02,WeatherDisplay:10.37,2013-07-21 21:04:00,
2013-07-21 17:06:00,77.4,5.0,29.98,ESE,103,0.0,0.0,6,0.00,CLR,,0.02,WeatherDisplay:10.37,2013-07-21 21:06:00,
2013-07-21 17:07:00,77.7,5.2,29.98,ESE,103,0.0,0.0,6,0.00,CLR,,0.02,WeatherDisplay:10.37,2013-07-21 21:07:00,
2013-07-21 17:08:00,78.0,5.5,29.98,ESE,103,0.0,0.0,6,0.00,CLR,,0.02,WeatherDisplay:10.37,2013-07-21 21:08:00,
2013-07-21 17:09:00,77.3,5.0,29.98,ESE,103,0.0,0.0,6,0.00,CLR,,0.02,WeatherDisplay:10.37,2013-07-21 21:09:00,
2013-07-21 17:11:00,77.0,4.7,29.98,ESE,103,0.0,0.0,6,0.00,CLR,,0.02,WeatherDisplay:10.37,2013-07-21 21:11:00,
2013-07-21 17:12:00,77.7,5.2,29.98,ESE,103,0.0,0.0,6,0.00,CLR,,0.02,WeatherDisplay:10.37,2013-07-21 21:12:00,
2013-07-21 17:13:00,77.9,5.4,29.98,ESE,103,0.0,0.0,6,0.00,CLR,,0.02,WeatherDisplay:10.37,2013-07-21 21:13:00,
2013-07-21 17:14:00,78.0,5.5,29.98,ESE,103,0.0,0.0,6,0.00,CLR,,0.02,WeatherDisplay:10.37,2013-07-21 21:14:00,
2013-07-21 17:16:00,77.8,5.3,29.98,ESE,103,0.0,0.0,6,0.00,CLR,,0.02,WeatherDisplay:10.37,2013-07-21 21:16:00,
2013-07-21 17:17:00,77.5,5.1,29.98,ESE,103,0.0,0.0,6,0.00,CLR,,0.02,WeatherDisplay:10.37,2013-07-21 21:17:00,
2013-07-21 17:18:00,77.7,5.2,29.98,ESE,103,0.0,0.0,6,0.00,CLR,,0.02,WeatherDisplay:10.37,2013-07-21 21:18:00,
2013-07-21 17:19:00,77.2,0.9,29.99,ESE,103,0.0,0.0,5,0.00,CLR,,0.02,WeatherDisplay:10.37,2013-07-21 21:19:00,
2013-07-21 17:21:00,77.9,1.4,29.99,ESE,103,0.0,0.0,5,0.00,CLR,,0.02,WeatherDisplay:10.37,2013-07-21 21:21:00,
2013-07-21 17:22:00,78.0,1.5,29.99,ESE,103,0.0,0.0,5,0.00,CLR,,0.02,WeatherDisplay:10.37,2013-07-21 21:22:00,
2013-07-21 17:23:00,78.4,1.8,29.99,ESE,103,0.0,0.0,5,0.00,CLR,,0.02,WeatherDisplay:10.37,2013-07-21 21:23:00,
2013-07-21 17:24:00,78.1,1.6,29.99,ESE,103,0.0,0.0,5,0.00,CLR,,0.02,WeatherDisplay:10.37,2013-07-21 21:24:00,
2013-07-21 17:26:00,77.5,1.2,29.99,ESE,103,0.0,0.0,5,0.00,CLR,,0.02,WeatherDisplay:10.37,2013-07-21 21:26:00,
2013-07-21 17:27:00,78.1,1.6,29.99,ESE,103,0.0,0.0,5,0.00,CLR,,0.02,WeatherDisplay:10.37,2013-07-21 21:27:00,
2013-07-21 17:28:00,77.3,1.0,29.99,ESE,103,0.0,0.0,5,0.00,CLR,,0.02,WeatherDisplay:10.37,2013-07-21 21:28:00,
2013-07-21 17:29:00,77.9,1.4,29.99,ESE,103,0.0,0.0,5,0.00,CLR,,0.02,WeatherDisplay:10.37,2013-07-21 21:29:00,
2013-07-21 17:31:00,78.1,5.5,29.99,ESE,103,0.0,0.0,6,0.00,CLR,,0.02,WeatherDisplay:10.37,2013-07-21 21:31:00,
2013-07-21 17:32:00,77.5,5.1,29.99,ESE,103,0.0,0.0,6,0.00,CLR,,0.02,WeatherDisplay:10.37,2013-07-21 21:32:00,
2013-07-21 17:33:00,77.7,5.2,29.99,ESE,103,0.0,0.0,6,0.00,CLR,,0.02,WeatherDisplay:10.37,2013-07-21 21:33:00,
2013-07-21 17:34:00,77.3,5.0,29.99,ESE,103,0.0,0.0,6,0.00,CLR,,0.02,WeatherDisplay:10.37,2013-07-21 21:34:00,
2013-07-21 17:36:00,77.4,5.0,29.99,ESE,103,0.0,0.0,6,0.00,CLR,,0.02,WeatherDisplay:10.37,2013-07-21 21:36:00,
2013-07-21 17:38:00,78.2,5.6,29.99,ESE,103,0.0,0.0,6,0.00,CLR,,0.02,WeatherDisplay:10.37,2013-07-21 21:38:00,
2013-07-21 17:39:00,77.4,5.0,29.99,ESE,103,0.0,0.0,6,0.00,CLR,,0.02,WeatherDisplay:10.37,2013-07-21 21:39:00,
2013-07-21 17:42:00,78.1,5.5,29.99,ESE,103,0.0,0.0,6,0.00,CLR,,0.02,WeatherDisplay:10.37,2013-07-21 21:42:00,
2013-07-21 17:44:00,78.0,5.5,29.98,ESE,103,0.0,0.0,6,0.00,CLR,,0.02,WeatherDisplay:10.37,2013-07-21 21:44:00,
2013-07-21 17:45:00,78.7,6.0,29.98,ESE,103,0.0,0.0,6,0.00,CLR,,0.02,WeatherDisplay:10.37,2013-07-21 21:45:00,
2013-07-21 17:47:00,79.2,2.4,29.98,ESE,103,0.0,0.0,5,0.00,CLR,,0.02,WeatherDisplay:10.37,2013-07-21 21:47:00,
2013-07-21 17:49:00,78.4,1.8,29.98,ESE,103,0.0,0.0,5,0.00,CLR,,0.02,WeatherDisplay:10.37,2013-07-21 21:49:00,
2013-07-21 17:50:00,80.0,2.9,29.98,ESE,103,0.0,0.0,5,0.00,CLR,,0.02,WeatherDisplay:10.37,2013-07-21 21:50:00,
2013-07-21 17:52:00,78.0,1.5,29.98,ESE,103,0.0,0.0,5,0.00,CLR,,0.02,WeatherDisplay:10.37,2013-07-21 21:52:00,
2013-07-21 17:54:00,79.1,2.3,29.98,ESE,103,0.0,0.0,5,0.00,CLR,,0.02,WeatherDisplay:10.37,2013-07-21 21:54:00,
2013-07-21 17:55:00,78.0,1.5,29.98,ESE,103,0.0,0.0,5,0.00,CLR,,0.02,WeatherDisplay:10.37,2013-07-21 21:55:00,
2013-07-21 17:57:00,80.2,-1.7,29.98,ESE,103,0.0,0.0,4,0.00,CLR,,0.02,WeatherDisplay:10.37,2013-07-21 21:57:00,
2013-07-21 17:59:00,79.3,-8.3,29.98,ESE,103,0.0,0.0,3,0.00,CLR,,0.02,WeatherDisplay:10.37,2013-07-21 21:59:00,
2013-07-21 18:00:00,80.5,-7.5,29.98,ESE,103,0.0,0.0,3,0.00,CLR,,0.02,WeatherDisplay:10.37,2013-07-21 22:00:00,
2013-07-21 18:01:00,80.9,-7.2,29.98,ESE,103,0.0,0.0,3,0.00,CLR,,0.02,WeatherDisplay:10.37,2013-07-21 22:01:00,
2013-07-21 18:02:00,80.7,-7.4,29.98,ESE,103,0.0,0.0,3,0.00,CLR,,0.02,WeatherDisplay:10.37,2013-07-21 22:02:00,
2013-07-21 18:05:00,82.3,-14.5,29.97,ESE,103,0.0,0.0,2,0.00,CLR,,0.02,WeatherDisplay:10.37,2013-07-21 22:05:00,
2013-07-21 18:06:00,81.9,-6.6,29.98,ESE,103,0.0,0.0,3,0.00,CLR,,0.02,WeatherDisplay:10.37,2013-07-21 22:06:00,
2013-07-21 18:08:00,82.4,-6.2,29.97,ESE,103,0.0,0.0,3,0.00,CLR,,0.02,WeatherDisplay:10.37,2013-07-21 22:08:00,
2013-07-21 18:10:00,83.8,-13.6,29.97,ESE,103,0.0,0.0,2,0.00,CLR,,0.02,WeatherDisplay:10.37,2013-07-21 22:10:00,
2013-07-21 18:11:00,83.8,-13.6,29.97,ESE,103,0.0,0.0,2,0.00,CLR,,0.02,WeatherDisplay:10.37,2013-07-21 22:11:00,
2013-07-21 18:13:00,84.1,-13.4,29.97,ESE,103,0.0,0.0,2,0.00,CLR,,0.02,WeatherDisplay:10.37,2013-07-21 22:13:00,
2013-07-21 18:15:00,84.6,-13.0,29.97,ESE,103,0.0,0.0,2,0.00,CLR,,0.02,WeatherDisplay:10.37,2013-07-21 22:15:00,
2013-07-21 18:16:00,83.2,-13.9,29.97,ESE,103,0.0,0.0,2,0.00,CLR,,0.02,WeatherDisplay:10.37,2013-07-21 22:16:00,
2013-07-21 18:18:00,84.9,-12.8,29.98,ESE,103,0.0,0.0,2,0.00,CLR,,0.02,WeatherDisplay:10.37,2013-07-21 22:18:00,
2013-07-21 18:21:00,83.4,-13.8,29.98,ESE,103,0.0,0.0,2,0.00,CLR,,0.02,WeatherDisplay:10.37,2013-07-21 22:21:00,
2013-07-21 18:22:00,83.3,-13.9,29.98,ESE,103,0.0,0.0,2,0.00,CLR,,0.02,WeatherDisplay:10.37,2013-07-21 22:22:00,
2013-07-21 18:23:00,83.0,-14.1,29.98,ESE,103,0.0,0.0,2,0.00,CLR,,0.02,WeatherDisplay:10.37,2013-07-21 22:23:00,
2013-07-21 18:26:00,84.4,-13.2,29.98,ESE,103,0.0,0.0,2,0.00,CLR,,0.02,WeatherDisplay:10.37,2013-07-21 22:26:00,
2013-07-21 18:27:00,85.1,-12.7,29.98,ESE,103,0.0,0.0,2,0.00,CLR,,0.02,WeatherDisplay:10.37,2013-07-21 22:27:00,
2013-07-21 18:28:00,82.2,-6.4,29.98,ESE,103,0.0,0.0,3,0.00,CLR,,0.02,WeatherDisplay:10.37,2013-07-21 22:28:00,
2013-07-21 18:31:00,81.4,-6.9,29.98,ESE,103,0.0,0.0,3,0.00,CLR,,0.02,WeatherDisplay:10.37,2013-07-21 22:31:00,
2013-07-21 18:32:00,82.1,-6.4,29.98,ESE,103,0.0,0.0,3,0.00,CLR,,0.02,WeatherDisplay:10.37,2013-07-21 22:32:00,
2013-07-21 18:33:00,81.6,-6.8,29.98,ESE,103,0.0,0.0,3,0.00,CLR,,0.02,WeatherDisplay:10.37,2013-07-21 22:33:00,
2013-07-21 18:36:00,81.4,-6.9,29.98,ESE,103,0.0,0.0,3,0.00,CLR,,0.02,WeatherDisplay:10.37,2013-07-21 22:36:00,
2013-07-21 18:37:00,81.0,-7.2,29.98,ESE,103,0.0,0.0,3,0.00,CLR,,0.02,WeatherDisplay:10.37,2013-07-21 22:37:00,
2013-07-21 18:39:00,81.7,-6.7,29.98,ESE,103,0.0,0.0,3,0.00,CLR,,0.02,WeatherDisplay:10.37,2013-07-21 22:39:00,
2013-07-21 18:41:00,81.1,-7.1,29.99,ESE,103,0.0,0.0,3,0.00,CLR,,0.02,WeatherDisplay:10.37,2013-07-21 22:41:00,
2013-07-21 18:42:00,80.9,-7.2,29.99,ESE,103,0.0,0.0,3,0.00,CLR,,0.02,WeatherDisplay:10.37,2013-07-21 22:42:00,
2013-07-21 18:43:00,79.5,-2.2,29.98,ENE,65,1.6,5.8,4,0.00,CLR,,0.02,WeatherDisplay:10.37,2013-07-21 22:43:00,
2013-07-21 18:44:00,80.7,-1.4,29.98,SE,136,1.1,5.8,4,0.00,CLR,,0.02,WeatherDisplay:10.37,2013-07-21 22:44:00,
2013-07-21 18:46:00,80.0,-1.9,29.99,ESE,106,1.6,3.5,4,0.00,CLR,,0.02,WeatherDisplay:10.37,2013-07-21 22:46:00,
2013-07-21 18:47:00,80.0,-1.9,29.99,East,97,3.5,4.6,4,0.00,CLR,,0.02,WeatherDisplay:10.37,2013-07-21 22:47:00,
2013-07-21 18:48:00,79.0,-2.5,29.99,East,97,0.1,6.9,4,0.00,CLR,,0.02,WeatherDisplay:10.37,2013-07-21 22:48:00,
2013-07-21 18:49:00,78.1,-3.2,29.99,East,97,0.0,0.0,4,0.00,CLR,,0.02,WeatherDisplay:10.37,2013-07-21 22:49:00,
2013-07-21 18:50:00,79.0,-2.5,29.99,East,97,0.0,0.0,4,0.00,CLR,,0.02,WeatherDisplay:10.37,2013-07-21 22:50:00,
2013-07-21 18:51:00,78.7,-2.8,29.99,ESE,120,1.7,5.3,4,0.00,CLR,,0.02,WeatherDisplay:10.37,2013-07-21 22:51:00,
2013-07-21 18:52:00,78.5,-2.9,29.99,SE,131,3.6,5.8,4,0.00,CLR,,0.02,WeatherDisplay:10.37,2013-07-21 22:52:00,
2013-07-21 18:53:00,78.9,2.1,29.99,SE,131,2.0,5.8,5,0.00,CLR,,0.02,WeatherDisplay:10.37,2013-07-21 22:53:00,
2013-07-21 18:54:00,78.4,-3.0,29.99,SE,131,0.0,4.6,4,0.00,CLR,,0.02,WeatherDisplay:10.37,2013-07-21 22:54:00,
2013-07-21 18:55:00,78.1,-3.2,29.99,ENE,64,2.5,4.4,4,0.00,CLR,,0.02,WeatherDisplay:10.37,2013-07-21 22:55:00,
2013-07-21 18:56:00,77.7,-3.4,29.99,ENE,75,0.0,0.0,4,0.00,CLR,,0.02,WeatherDisplay:10.37,2013-07-21 22:56:00,
2013-07-21 18:58:00,77.7,-3.4,29.99,ENE,75,0.0,0.0,4,0.00,CLR,,0.02,WeatherDisplay:10.37,2013-07-21 22:58:00,
2013-07-21 18:59:00,78.3,1.7,29.99,ENE,75,0.0,0.0,5,0.00,CLR,,0.02,WeatherDisplay:10.37,2013-07-21 22:59:00,
2013-07-21 19:00:00,78.7,2.0,29.99,ENE,75,0.0,0.0,5,0.00,CLR,,0.02,WeatherDisplay:10.37,2013-07-21 23:00:00,
2013-07-21 19:02:00,77.9,1.4,29.99,ESE,107,1.7,0.0,5,0.00,CLR,,0.02,WeatherDisplay:10.37,2013-07-21 23:02:00,
2013-07-21 19:03:00,79.9,2.9,29.99,ESE,107,0.7,4.6,5,0.00,CLR,,0.02,WeatherDisplay:10.37,2013-07-21 23:03:00,
2013-07-21 19:04:00,78.8,2.1,29.99,East,83,0.8,4.6,5,0.00,CLR,,0.02,WeatherDisplay:10.37,2013-07-21 23:04:00,
2013-07-21 19:05:00,78.1,1.6,29.99,East,83,0.0,4.6,5,0.00,CLR,,0.02,WeatherDisplay:10.37,2013-07-21 23:05:00,
2013-07-21 19:07:00,77.9,1.4,29.99,East,86,3.0,6.7,5,0.00,CLR,,0.02,WeatherDisplay:10.37,2013-07-21 23:07:00,
2013-07-21 19:08:00,78.1,1.6,29.99,SE,133,2.9,9.2,5,0.00,CLR,,0.02,WeatherDisplay:10.37,2013-07-21 23:08:00,
2013-07-21 19:09:00,78.5,1.9,29.99,East,92,0.3,4.9,5,0.00,CLR,,0.02,WeatherDisplay:10.37,2013-07-21 23:09:00,
2013-07-21 19:10:00,78.1,1.6,29.99,East,88,2.9,0.0,5,0.00,CLR,,0.02,WeatherDisplay:10.37,2013-07-21 23:10:00,
2013-07-21 19:12:00,78.0,1.5,29.98,ENE,61,1.5,6.9,5,0.00,CLR,,0.02,WeatherDisplay:10.37,2013-07-21 23:12:00,
2013-07-21 19:13:00,78.1,1.6,29.98,ENE,61,0.0,4.6,5,0.00,CLR,,0.02,WeatherDisplay:10.37,2013-07-21 23:13:00,
2013-07-21 19:14:00,77.4,1.1,29.98,ENE,61,0.0,0.0,5,0.00,CLR,,0.02,WeatherDisplay:10.37,2013-07-21 23:14:00,
2013-07-21 19:15:00,78.4,1.8,29.99,ENE,61,0.0,0.0,5,0.00,CLR,,0.02,WeatherDisplay:10.37,2013-07-21 23:15:00,
2013-07-21 19:17:00,77.8,1.4,29.98,SE,138,3.7,6.9,5,0.00,CLR,,0.02,WeatherDisplay:10.37,2013-07-21 23:17:00,
2013-07-21 19:18:00,78.0,1.5,29.99,ESE,102,5.4,6.9,5,0.00,CLR,,0.02,WeatherDisplay:10.37,2013-07-21 23:18:00,
2013-07-21 19:19:00,78.0,1.5,29.99,ESE,106,2.7,5.8,5,0.00,CLR,,0.02,WeatherDisplay:10.37,2013-07-21 23:19:00,
2013-07-21 19:20:00,77.7,5.2,29.99,East,90,0.0,5.8,6,0.00,CLR,,0.02,WeatherDisplay:10.37,2013-07-21 23:20:00,
2013-07-21 19:22:00,78.2,1.6,29.99,East,88,3.9,8.1,5,0.00,CLR,,0.02,WeatherDisplay:10.37,2013-07-21 23:22:00,
2013-07-21 19:23:00,77.2,0.9,29.99,East,88,0.1,5.8,5,0.00,CLR,,0.02,WeatherDisplay:10.37,2013-07-21 23:23:00,
2013-07-21 19:24:00,78.3,5.7,29.99,East,88,0.0,0.0,6,0.00,CLR,,0.02,WeatherDisplay:10.37,2013-07-21 23:24:00,
2013-07-21 19:25:00,77.9,5.4,29.99,East,88,0.0,0.0,6,0.00,CLR,,0.02,WeatherDisplay:10.37,2013-07-21 23:25:00,
2013-07-21 19:27:00,77.2,4.9,29.99,East,88,0.0,0.0,6,0.00,CLR,,0.02,WeatherDisplay:10.37,2013-07-21 23:27:00,
2013-07-21 19:28:00,78.0,5.5,29.99,East,88,0.0,0.0,6,0.00,CLR,,0.02,WeatherDisplay:10.37,2013-07-21 23:28:00,
2013-07-21 19:29:00,77.8,5.3,29.99,East,88,0.0,0.0,6,0.00,CLR,,0.02,WeatherDisplay:10.37,2013-07-21 23:29:00,
2013-07-21 19:30:00,77.2,4.9,29.99,East,88,0.0,0.0,6,0.00,CLR,,0.02,WeatherDisplay:10.37,2013-07-21 23:30:00,
2013-07-21 19:31:00,77.1,4.8,29.99,East,88,0.0,0.0,6,0.00,CLR,,0.02,WeatherDisplay:10.37,2013-07-21 23:31:00,
2013-07-21 19:33:00,77.5,5.1,29.99,East,88,0.0,0.0,6,0.00,CLR,,0.02,WeatherDisplay:10.37,2013-07-21 23:33:00,
2013-07-21 19:34:00,77.1,4.8,29.99,East,88,0.0,0.0,6,0.00,CLR,,0.02,WeatherDisplay:10.37,2013-07-21 23:34:00,
2013-07-21 19:35:00,77.8,5.3,29.99,East,88,0.0,0.0,6,0.00,CLR,,0.02,WeatherDisplay:10.37,2013-07-21 23:35:00,
2013-07-21 19:36:00,77.4,5.0,29.99,East,88,0.0,0.0,6,0.00,CLR,,0.02,WeatherDisplay:10.37,2013-07-21 23:36:00,
2013-07-21 19:38:00,77.8,5.3,29.99,East,88,0.0,0.0,6,0.00,CLR,,0.02,WeatherDisplay:10.37,2013-07-21 23:38:00,
2013-07-21 19:39:00,77.3,5.0,29.99,East,88,0.0,0.0,6,0.00,CLR,,0.02,WeatherDisplay:10.37,2013-07-21 23:39:00,
2013-07-21 19:40:00,77.4,5.0,29.99,ENE,64,3.0,3.0,6,0.00,CLR,,0.02,WeatherDisplay:10.37,2013-07-21 23:40:00,
2013-07-21 19:41:00,77.3,5.0,29.99,ENE,64,3.0,0.0,6,0.00,CLR,,0.02,WeatherDisplay:10.37,2013-07-21 23:41:00,
2013-07-21 19:43:00,77.2,8.3,29.99,ENE,71,2.6,5.8,7,0.00,CLR,,0.02,WeatherDisplay:10.37,2013-07-21 23:43:00,
2013-07-21 19:44:00,77.0,4.7,29.99,SE,127,0.5,6.1,6,0.00,CLR,,0.02,WeatherDisplay:10.37,2013-07-21 23:44:00,
2013-07-21 19:46:00,76.7,7.9,29.99,East,83,5.2,8.1,7,0.00,CLR,,0.02,WeatherDisplay:10.37,2013-07-21 23:46:00,
2013-07-21 19:48:00,76.9,11.0,29.99,ESE,106,0.0,5.8,8,0.00,CLR,,0.02,WeatherDisplay:10.37,2013-07-21 23:48:00,
2013-07-21 19:49:00,76.5,10.7,29.99,East,95,3.8,6.9,8,0.00,CLR,,0.02,WeatherDisplay:10.37,2013-07-21 23:49:00,
2013-07-21 19:51:00,76.6,13.5,29.99,East,83,5.4,8.1,9,0.00,CLR,,0.02,WeatherDisplay:10.37,2013-07-21 23:51:00,
2013-07-21 19:54:00,76.5,15.8,29.99,ESE,123,1.5,6.9,10,0.00,CLR,,0.02,WeatherDisplay:10.37,2013-07-21 23:54:00,
2013-07-21 19:55:00,76.6,15.9,30.00,SE,124,1.1,5.2,10,0.00,CLR,,0.02,WeatherDisplay:10.37,2013-07-21 23:55:00,
2013-07-21 19:56:00,76.4,18.0,30.00,ESE,121,0.8,4.6,11,0.00,CLR,,0.02,WeatherDisplay:10.37,2013-07-21 23:56:00,
2013-07-21 19:59:00,76.4,18.0,30.00,ENE,64,0.0,4.6,11,0.00,CLR,,0.02,WeatherDisplay:10.37,2013-07-21 23:59:00,
2013-07-21 20:00:00,76.5,15.8,30.00,ENE,64,0.0,0.0,10,0.00,CLR,,0.02,WeatherDisplay:10.37,2013-07-22 00:00:00,
2013-07-21 20:01:00,76.5,15.8,30.00,ENE,64,0.0,0.0,10,0.00,CLR,,0.02,WeatherDisplay:10.37,2013-07-22 00:01:00,
2013-07-21 20:04:00,76.7,16.0,30.00,ENE,64,0.0,0.0,10,0.00,CLR,,0.02,WeatherDisplay:10.37,2013-07-22 00:04:00,
2013-07-21 20:05:00,76.7,10.9,30.00,ENE,64,0.0,0.0,8,0.00,CLR,,0.02,WeatherDisplay:10.37,2013-07-22 00:05:00,
2013-07-21 20:07:00,76.7,13.6,30.00,ENE,64,0.0,0.0,9,0.00,CLR,,0.02,WeatherDisplay:10.37,2013-07-22 00:07:00,
2013-07-21 20:09:00,76.3,13.3,30.00,ENE,64,0.0,0.0,9,0.00,CLR,,0.02,WeatherDisplay:10.37,2013-07-22 00:09:00,
2013-07-21 20:10:00,76.7,16.0,30.00,ENE,64,0.0,0.0,10,0.00,CLR,,0.02,WeatherDisplay:10.37,2013-07-22 00:10:00,
2013-07-21 20:11:00,76.8,16.1,30.00,ENE,64,0.0,0.0,10,0.00,CLR,,0.02,WeatherDisplay:10.37,2013-07-22 00:11:00,
2013-07-21 20:12:00,76.7,16.0,30.00,ENE,64,0.0,0.0,10,0.00,CLR,,0.02,WeatherDisplay:10.37,2013-07-22 00:12:00,
2013-07-21 20:14:00,76.3,15.7,30.00,ENE,64,0.0,0.0,10,0.00,CLR,,0.02,WeatherDisplay:10.37,2013-07-22 00:14:00,
2013-07-21 20:15:00,76.6,18.1,30.00,ENE,64,0.0,0.0,11,0.00,CLR,,0.02,WeatherDisplay:10.37,2013-07-22 00:15:00,
2013-07-21 20:16:00,76.5,20.1,30.00,ENE,64,0.0,0.0,12,0.00,CLR,,0.02,WeatherDisplay:10.37,2013-07-22 00:16:00,
2013-07-21 20:17:00,76.4,20.0,30.00,ENE,64,0.0,0.0,12,0.00,CLR,,0.02,WeatherDisplay:10.37,2013-07-22 00:17:00,
2013-07-21 20:19:00,76.5,22.0,29.99,ENE,64,0.0,0.0,13,0.00,CLR,,0.02,WeatherDisplay:10.37,2013-07-22 00:19:00,
2013-07-21 20:21:00,76.4,23.6,29.99,ENE,64,0.0,0.0,14,0.00,CLR,,0.02,WeatherDisplay:10.37,2013-07-22 00:21:00,
2013-07-21 20:22:00,76.4,23.6,29.99,ENE,64,0.0,0.0,14,0.00,CLR,,0.02,WeatherDisplay:10.37,2013-07-22 00:22:00,
2013-07-21 20:24:00,76.4,26.9,29.99,ENE,64,0.0,0.0,16,0.00,CLR,,0.02,WeatherDisplay:10.37,2013-07-22 00:24:00,
2013-07-21 20:27:00,76.5,28.4,29.99,SE,137,5.1,8.1,17,0.00,CLR,,0.02,WeatherDisplay:10.37,2013-07-22 00:27:00,
2013-07-21 20:29:00,76.4,31.1,29.99,ENE,75,0.6,9.2,19,0.00,CLR,,0.02,WeatherDisplay:10.37,2013-07-22 00:29:00,
2013-07-21 20:32:00,76.1,33.3,30.00,ENE,75,0.0,0.0,21,0.00,CLR,,0.02,WeatherDisplay:10.37,2013-07-22 00:32:00,
2013-07-21 20:34:00,76.1,34.5,30.00,ENE,75,0.0,0.0,22,0.00,CLR,,0.02,WeatherDisplay:10.37,2013-07-22 00:34:00,
2013-07-21 20:37:00,76.2,36.8,30.00,ENE,75,0.0,0.0,24,0.00,CLR,,0.02,WeatherDisplay:10.37,2013-07-22 00:37:00,
2013-07-21 20:38:00,76.3,36.8,30.00,ENE,75,0.0,0.0,24,0.00,CLR,,0.02,WeatherDisplay:10.37,2013-07-22 00:38:00,
2013-07-21 20:40:00,75.9,37.5,30.00,ENE,75,0.0,0.0,25,0.00,CLR,,0.02,WeatherDisplay:10.37,2013-07-22 00:40:00,
2013-07-21 20:42:00,76.3,38.9,29.99,ENE,75,0.0,0.0,26,0.00,CLR,,0.02,WeatherDisplay:10.37,2013-07-22 00:42:00,
2013-07-21 20:43:00,76.3,38.9,29.99,ENE,75,0.0,0.0,26,0.00,CLR,,0.02,WeatherDisplay:10.37,2013-07-22 00:43:00,
2013-07-21 20:45:00,75.8,38.5,29.99,ENE,75,0.0,0.0,26,0.00,CLR,,0.02,WeatherDisplay:10.37,2013-07-22 00:45:00,
2013-07-21 20:47:00,76.1,38.7,29.99,ENE,75,0.0,0.0,26,0.00,CLR,,0.02,WeatherDisplay:10.37,2013-07-22 00:47:00,
2013-07-21 20:48:00,76.0,39.6,29.99,ENE,75,0.0,0.0,27,0.00,CLR,,0.02,WeatherDisplay:10.37,2013-07-22 00:48:00,
2013-07-21 20:50:00,76.3,39.8,29.99,ENE,75,0.0,0.0,27,0.00,CLR,,0.02,WeatherDisplay:10.37,2013-07-22 00:50:00,
2013-07-21 20:53:00,76.0,40.5,29.99,ENE,75,0.0,0.0,28,0.00,CLR,,0.02,WeatherDisplay:10.37,2013-07-22 00:53:00,
2013-07-21 20:55:00,76.2,42.5,29.99,ENE,75,0.0,0.0,30,0.00,CLR,,0.02,WeatherDisplay:10.37,2013-07-22 00:55:00,
2013-07-21 20:58:00,76.1,42.4,29.99,ENE,75,0.0,0.0,30,0.00,CLR,,0.02,WeatherDisplay:10.37,2013-07-22 00:58:00,
2013-07-21 21:00:00,75.7,42.9,29.99,ENE,75,0.0,0.0,31,0.00,CLR,,0.02,WeatherDisplay:10.37,2013-07-22 01:00:00,
2013-07-21 21:03:00,75.8,43.8,29.99,ENE,75,0.0,0.0,32,0.00,CLR,,0.02,WeatherDisplay:10.37,2013-07-22 01:03:00,
2013-07-21 21:04:00,75.9,43.9,29.99,ENE,75,0.0,0.0,32,0.00,CLR,,0.02,WeatherDisplay:10.37,2013-07-22 01:04:00,
2013-07-21 21:05:00,75.6,43.7,29.99,ENE,75,0.0,0.0,32,0.00,CLR,,0.02,WeatherDisplay:10.37,2013-07-22 01:05:00,
2013-07-21 21:08:00,75.7,44.5,29.99,ENE,75,0.0,0.0,33,0.00,CLR,,0.02,WeatherDisplay:10.37,2013-07-22 01:08:00,
2013-07-21 21:09:00,75.7,44.5,29.99,ENE,75,0.0,0.0,33,0.00,CLR,,0.02,WeatherDisplay:10.37,2013-07-22 01:09:00,
2013-07-21 21:10:00,75.7,45.3,29.99,ENE,75,0.0,0.0,34,0.00,CLR,,0.02,WeatherDisplay:10.37,2013-07-22 01:10:00,
2013-07-21 21:13:00,75.8,46.2,29.99,ENE,75,0.0,0.0,35,0.00,CLR,,0.02,WeatherDisplay:10.37,2013-07-22 01:13:00,
2013-07-21 21:14:00,75.4,45.8,29.99,ENE,75,0.0,0.0,35,0.00,CLR,,0.02,WeatherDisplay:10.37,2013-07-22 01:14:00,
2013-07-21 21:15:00,75.7,46.1,29.99,ENE,75,0.0,0.0,35,0.00,CLR,,0.02,WeatherDisplay:10.37,2013-07-22 01:15:00,
2013-07-21 21:18:00,75.4,43.5,29.99,ENE,75,0.0,0.0,32,0.00,CLR,,0.02,WeatherDisplay:10.37,2013-07-22 01:18:00,
2013-07-21 21:19:00,75.7,45.3,29.99,ENE,75,0.0,0.0,34,0.00,CLR,,0.02,WeatherDisplay:10.37,2013-07-22 01:19:00,
2013-07-21 21:21:00,75.4,45.1,29.99,ENE,75,0.0,0.0,34,0.00,CLR,,0.02,WeatherDisplay:10.37,2013-07-22 01:21:00,
2013-07-21 21:23:00,75.3,45.7,29.99,ENE,75,0.0,0.0,35,0.00,CLR,,0.02,WeatherDisplay:10.37,2013-07-22 01:23:00,
2013-07-21 21:24:00,75.3,45.7,29.99,ENE,75,0.0,0.0,35,0.00,CLR,,0.02,WeatherDisplay:10.37,2013-07-22 01:24:00,
2013-07-21 21:26:00,75.3,46.5,29.99,ENE,75,0.0,0.0,36,0.00,CLR,,0.02,WeatherDisplay:10.37,2013-07-22 01:26:00,
2013-07-21 21:28:00,75.4,46.6,29.99,ENE,75,0.0,0.0,36,0.00,CLR,,0.02,WeatherDisplay:10.37,2013-07-22 01:28:00,
2013-07-21 21:29:00,74.9,46.1,29.99,ENE,75,0.0,0.0,36,0.00,CLR,,0.02,WeatherDisplay:10.37,2013-07-22 01:29:00,
2013-07-21 21:30:00,74.8,46.1,29.99,ENE,75,0.0,0.0,36,0.00,CLR,,0.02,WeatherDisplay:10.37,2013-07-22 01:30:00,
2013-07-21 21:31:00,75.3,45.7,29.99,ENE,73,2.6,5.3,35,0.00,CLR,,0.02,WeatherDisplay:10.37,2013-07-22 01:31:00,
2013-07-21 21:33:00,75.0,45.5,29.99,ENE,73,0.0,0.0,35,0.00,CLR,,0.02,WeatherDisplay:10.37,2013-07-22 01:33:00,
2013-07-21 21:34:00,75.0,45.5,29.99,ENE,73,0.0,0.0,35,0.00,CLR,,0.02,WeatherDisplay:10.37,2013-07-22 01:34:00,
2013-07-21 21:35:00,75.0,46.2,29.99,ENE,73,0.0,0.0,36,0.00,CLR,,0.02,WeatherDisplay:10.37,2013-07-22 01:35:00,
2013-07-21 21:36:00,74.9,46.1,29.99,ENE,73,0.0,0.0,36,0.00,CLR,,0.02,WeatherDisplay:10.37,2013-07-22 01:36:00,
2013-07-21 21:39:00,74.7,46.7,29.99,ENE,73,0.0,0.0,37,0.00,CLR,,0.02,WeatherDisplay:10.37,2013-07-22 01:39:00,
2013-07-21 21:40:00,74.8,46.8,29.99,ENE,73,0.0,0.0,37,0.00,CLR,,0.02,WeatherDisplay:10.37,2013-07-22 01:40:00,
2013-07-21 21:41:00,74.7,46.7,29.99,ENE,73,0.0,0.0,37,0.00,CLR,,0.02,WeatherDisplay:10.37,2013-07-22 01:41:00,
2013-07-21 21:44:00,74.8,47.5,29.99,ENE,73,0.0,0.0,38,0.00,CLR,,0.02,WeatherDisplay:10.37,2013-07-22 01:44:00,
2013-07-21 21:45:00,74.6,48.0,29.99,ENE,73,0.0,0.0,39,0.00,CLR,,0.02,WeatherDisplay:10.37,2013-07-22 01:45:00,
2013-07-21 21:46:00,74.8,48.2,30.00,ENE,73,0.0,0.0,39,0.00,CLR,,0.02,WeatherDisplay:10.37,2013-07-22 01:46:00,
2013-07-21 21:49:00,74.5,48.6,30.00,ENE,73,0.0,0.0,40,0.00,CLR,,0.02,WeatherDisplay:10.37,2013-07-22 01:49:00,
2013-07-21 21:50:00,74.4,49.8,30.00,ENE,73,0.0,0.0,42,0.00,CLR,,0.02,WeatherDisplay:10.37,2013-07-22 01:50:00,
2013-07-21 21:52:00,74.5,49.9,30.00,ENE,73,0.0,0.0,42,0.00,CLR,,0.02,WeatherDisplay:10.37,2013-07-22 01:52:00,
2013-07-21 21:54:00,74.7,50.7,30.00,ENE,73,0.0,0.0,43,0.00,CLR,,0.02,WeatherDisplay:10.37,2013-07-22 01:54:00,
2013-07-21 21:55:00,74.7,50.7,30.00,ENE,73,0.0,0.0,43,0.00,CLR,,0.02,WeatherDisplay:10.37,2013-07-22 01:55:00,
2013-07-21 21:57:00,74.5,50.5,30.00,ENE,73,0.0,0.0,43,0.00,CLR,,0.02,WeatherDisplay:10.37,2013-07-22 01:57:00,
2013-07-21 21:59:00,74.6,51.2,30.00,ENE,73,0.0,0.0,44,0.00,CLR,,0.02,WeatherDisplay:10.37,2013-07-22 01:59:00,
2013-07-21 22:00:00,74.6,50.6,30.00,ENE,73,0.0,0.0,43,0.00,CLR,,0.02,WeatherDisplay:10.37,2013-07-22 02:00:00,
2013-07-21 22:02:00,74.7,51.3,30.00,ENE,73,0.0,0.0,44,0.00,CLR,,0.02,WeatherDisplay:10.37,2013-07-22 02:02:00,
2013-07-21 22:04:00,74.4,51.1,30.00,ENE,73,0.0,0.0,44,0.00,CLR,,0.02,WeatherDisplay:10.37,2013-07-22 02:04:00,
2013-07-21 22:05:00,74.4,51.1,30.00,ENE,73,0.0,0.0,44,0.00,CLR,,0.02,WeatherDisplay:10.37,2013-07-22 02:05:00,
2013-07-21 22:06:00,74.4,51.1,30.00,ENE,73,0.0,0.0,44,0.00,CLR,,0.02,WeatherDisplay:10.37,2013-07-22 02:06:00,
2013-07-21 22:08:00,74.7,51.3,30.01,ENE,73,0.0,0.0,44,0.00,CLR,,0.02,WeatherDisplay:10.37,2013-07-22 02:08:00,
2013-07-21 22:09:00,74.4,51.1,30.00,ENE,73,0.0,0.0,44,0.00,CLR,,0.02,WeatherDisplay:10.37,2013-07-22 02:09:00,
2013-07-21 22:10:00,74.3,51.0,30.00,ENE,73,0.0,0.0,44,0.00,CLR,,0.02,WeatherDisplay:10.37,2013-07-22 02:10:00,
2013-07-21 22:11:00,74.5,51.8,30.00,ENE,73,0.0,0.0,45,0.00,CLR,,0.02,WeatherDisplay:10.37,2013-07-22 02:11:00,
2013-07-21 22:13:00,74.3,51.6,30.01,ENE,73,0.0,0.0,45,0.00,CLR,,0.02,WeatherDisplay:10.37,2013-07-22 02:13:00,
2013-07-21 22:14:00,74.4,51.7,30.01,ENE,73,0.0,0.0,45,0.00,CLR,,0.02,WeatherDisplay:10.37,2013-07-22 02:14:00,
2013-07-21 22:15:00,74.3,52.2,30.01,ENE,73,0.0,0.0,46,0.00,CLR,,0.02,WeatherDisplay:10.37,2013-07-22 02:15:00,
2013-07-21 22:16:00,74.3,52.2,30.01,ENE,73,0.0,0.0,46,0.00,CLR,,0.02,WeatherDisplay:10.37,2013-07-22 02:16:00,
2013-07-21 22:18:00,74.4,52.3,30.01,ENE,73,0.0,0.0,46,0.00,CLR,,0.02,WeatherDisplay:10.37,2013-07-22 02:18:00,
2013-07-21 22:19:00,74.3,52.2,30.01,ENE,73,0.0,0.0,46,0.00,CLR,,0.02,WeatherDisplay:10.37,2013-07-22 02:19:00,
2013-07-21 22:20:00,74.3,52.2,30.01,ENE,73,0.0,0.0,46,0.00,CLR,,0.02,WeatherDisplay:10.37,2013-07-22 02:20:00,
2013-07-21 22:21:00,74.4,52.3,30.01,ENE,73,0.0,0.0,46,0.00,CLR,,0.02,WeatherDisplay:10.37,2013-07-22 02:21:00,
2013-07-21 22:24:00,74.4,51.7,30.01,ENE,73,0.0,0.0,45,0.00,CLR,,0.02,WeatherDisplay:10.37,2013-07-22 02:24:00,
2013-07-21 22:25:00,74.4,51.1,30.01,ENE,73,0.0,0.0,44,0.00,CLR,,0.02,WeatherDisplay:10.37,2013-07-22 02:25:00,
2013-07-21 22:26:00,74.3,51.6,30.01,ENE,73,0.0,0.0,45,0.00,CLR,,0.02,WeatherDisplay:10.37,2013-07-22 02:26:00,
2013-07-21 22:29:00,74.6,50.6,30.02,ENE,73,0.0,0.0,43,0.00,CLR,,0.02,WeatherDisplay:10.37,2013-07-22 02:29:00,
2013-07-21 22:30:00,74.6,51.2,30.02,ENE,73,0.0,0.0,44,0.00,CLR,,0.02,WeatherDisplay:10.37,2013-07-22 02:30:00,
2013-07-21 22:31:00,74.6,51.2,30.02,ENE,73,0.0,0.0,44,0.00,CLR,,0.02,WeatherDisplay:10.37,2013-07-22 02:31:00,
2013-07-21 22:34:00,74.3,51.0,30.02,ENE,73,0.0,0.0,44,0.00,CLR,,0.02,WeatherDisplay:10.37,2013-07-22 02:34:00,
2013-07-21 22:35:00,74.4,51.1,30.02,ENE,73,0.0,0.0,44,0.00,CLR,,0.02,WeatherDisplay:10.37,2013-07-22 02:35:00,
2013-07-21 22:36:00,74.3,51.0,30.02,ENE,73,0.0,0.0,44,0.00,CLR,,0.02,WeatherDisplay:10.37,2013-07-22 02:36:00,
2013-07-21 22:37:00,74.3,51.0,30.02,ENE,73,0.0,0.0,44,0.00,CLR,,0.02,WeatherDisplay:10.37,2013-07-22 02:37:00,
2013-07-21 22:40:00,74.3,50.4,30.02,ENE,73,0.0,0.0,43,0.00,CLR,,0.02,WeatherDisplay:10.37,2013-07-22 02:40:00,
2013-07-21 22:41:00,74.3,49.7,30.02,ENE,73,0.0,0.0,42,0.00,CLR,,0.02,WeatherDisplay:10.37,2013-07-22 02:41:00,
2013-07-21 22:42:00,74.3,49.7,30.02,ENE,73,0.0,0.0,42,0.00,CLR,,0.02,WeatherDisplay:10.37,2013-07-22 02:42:00,
2013-07-21 22:46:00,74.4,51.1,30.02,ENE,73,0.0,0.0,44,0.00,CLR,,0.02,WeatherDisplay:10.37,2013-07-22 02:46:00,
2013-07-21 22:47:00,74.3,51.0,30.02,ENE,73,0.0,0.0,44,0.00,CLR,,0.02,WeatherDisplay:10.37,2013-07-22 02:47:00,
2013-07-21 22:51:00,74.3,51.6,30.02,ENE,73,0.0,0.0,45,0.00,CLR,,0.02,WeatherDisplay:10.37,2013-07-22 02:51:00,
2013-07-21 22:52:00,74.3,51.0,30.02,ENE,73,0.0,0.0,44,0.00,CLR,,0.02,WeatherDisplay:10.37,2013-07-22 02:52:00,
2013-07-21 22:56:00,74.3,52.2,30.02,ENE,73,0.0,0.0,46,0.00,CLR,,0.02,WeatherDisplay:10.37,2013-07-22 02:56:00,
2013-07-21 22:57:00,74.2,52.1,30.02,ENE,73,0.0,0.0,46,0.00,CLR,,0.02,WeatherDisplay:10.37,2013-07-22 02:57:00,
2013-07-21 23:01:00,74.3,53.3,30.02,ENE,73,0.0,0.0,48,0.00,CLR,,0.02,WeatherDisplay:10.37,2013-07-22 03:01:00,
2013-07-21 23:02:00,74.2,53.2,30.02,ENE,73,0.0,0.0,48,0.00,CLR,,0.02,WeatherDisplay:10.37,2013-07-22 03:02:00,
2013-07-21 23:06:00,74.3,53.3,30.02,ENE,73,0.0,0.0,48,0.00,CLR,,0.02,WeatherDisplay:10.37,2013-07-22 03:06:00,
2013-07-21 23:07:00,74.2,53.8,30.02,ENE,73,0.0,0.0,49,0.00,CLR,,0.02,WeatherDisplay:10.37,2013-07-22 03:07:00,
2013-07-21 23:11:00,74.2,53.8,30.02,ENE,73,0.0,0.0,49,0.00,CLR,,0.02,WeatherDisplay:10.37,2013-07-22 03:11:00,
2013-07-21 23:12:00,74.3,54.5,30.02,ENE,73,0.0,0.0,50,0.00,CLR,,0.02,WeatherDisplay:10.37,2013-07-22 03:12:00,
2013-07-21 23:16:00,74.2,54.4,30.01,ENE,73,0.0,0.0,50,0.00,CLR,,0.02,WeatherDisplay:10.37,2013-07-22 03:16:00,
2013-07-21 23:17:00,74.2,54.4,30.01,ENE,73,0.0,0.0,50,0.00,CLR,,0.02,WeatherDisplay:10.37,2013-07-22 03:17:00,
2013-07-21 23:21:00,74.2,54.9,30.02,ENE,73,0.0,0.0,51,0.00,CLR,,0.02,WeatherDisplay:10.37,2013-07-22 03:21:00,
2013-07-21 23:22:00,74.2,54.9,30.02,ENE,73,0.0,0.0,51,0.00,CLR,,0.02,WeatherDisplay:10.37,2013-07-22 03:22:00,
2013-07-21 23:23:00,74.2,54.9,30.02,ENE,73,0.0,0.0,51,0.00,CLR,,0.02,WeatherDisplay:10.37,2013-07-22 03:23:00,
2013-07-21 23:26:00,74.2,54.4,30.02,ENE,73,0.0,0.0,50,0.00,CLR,,0.02,WeatherDisplay:10.37,2013-07-22 03:26:00,
2013-07-21 23:27:00,74.2,53.8,30.02,ENE,73,0.0,0.0,49,0.00,CLR,,0.02,WeatherDisplay:10.37,2013-07-22 03:27:00,
2013-07-21 23:28:00,74.2,53.8,30.02,ENE,73,0.0,0.0,49,0.00,CLR,,0.02,WeatherDisplay:10.37,2013-07-22 03:28:00,
2013-07-21 23:31:00,74.2,53.8,30.02,ENE,73,0.0,0.0,49,0.00,CLR,,0.02,WeatherDisplay:10.37,2013-07-22 03:31:00,
2013-07-21 23:32:00,74.2,53.8,30.02,ENE,73,0.0,0.0,49,0.00,CLR,,0.02,WeatherDisplay:10.37,2013-07-22 03:32:00,
2013-07-21 23:33:00,74.2,53.8,30.02,ENE,73,0.0,0.0,49,0.00,CLR,,0.02,WeatherDisplay:10.37,2013-07-22 03:33:00,
2013-07-21 23:37:00,74.3,54.5,30.02,ENE,73,0.0,0.0,50,0.00,CLR,,0.02,WeatherDisplay:10.37,2013-07-22 03:37:00,
2013-07-21 23:38:00,74.2,54.4,30.02,ENE,73,0.0,0.0,50,0.00,CLR,,0.02,WeatherDisplay:10.37,2013-07-22 03:38:00,
2013-07-21 23:42:00,74.2,54.4,30.02,ENE,73,0.0,0.0,50,0.00,CLR,,0.02,WeatherDisplay:10.37,2013-07-22 03:42:00,
2013-07-21 23:43:00,74.2,54.4,30.02,ENE,73,0.0,0.0,50,0.00,CLR,,0.02,WeatherDisplay:10.37,2013-07-22 03:43:00,
2013-07-21 23:47:00,74.2,54.9,30.02,ENE,73,0.0,0.0,51,0.00,CLR,,0.02,WeatherDisplay:10.37,2013-07-22 03:47:00,
2013-07-21 23:48:00,74.2,54.9,30.01,ENE,73,0.0,0.0,51,0.00,CLR,,0.02,WeatherDisplay:10.37,2013-07-22 03:48:00,
2013-07-21 23:52:00,74.2,54.9,30.02,ENE,73,0.0,0.0,51,0.00,CLR,,0.02,WeatherDisplay:10.37,2013-07-22 03:52:00,
2013-07-21 23:53:00,74.2,54.9,30.02,ENE,73,0.0,0.0,51,0.00,CLR,,0.02,WeatherDisplay:10.37,2013-07-22 03:53:00,
2013-07-21 23:54:00,74.0,54.7,30.02,ENE,73,0.0,0.0,51,0.00,CLR,,0.02,WeatherDisplay:10.37,2013-07-22 03:54:00,
2013-07-21 23:57:00,74.2,55.4,30.01,ENE,73,0.0,0.0,52,0.00,CLR,,0.02,WeatherDisplay:10.37,2013-07-22 03:57:00,
2013-07-21 23:58:00,74.2,56.0,30.01,ENE,73,0.0,0.0,53,0.00,CLR,,0.02,WeatherDisplay:10.37,2013-07-22 03:58:00,
2013-07-21 23:59:00,74.2,56.0,30.01,ENE,73,0.0,0.0,53,0.00,CLR,,0.02,WeatherDisplay:10.37,2013-07-22 03:59:00,